| time (UTC) | temp F | wind direction | speed MPH | gust MPH | rain 1hr in | rain 24hr in | rain mn in | humidity % | barometer mb |
| 20260505153352 | 33 | 330 | 6.0 | 11.0 | 0.02 | 0.33 | 0.18 | 96 | 1014.4 |
| 20260505153156 | 33 | 322 | 7.0 | 11.0 | 0.02 | 0.33 | 0.18 | 96 | 1014.4 |
| 20260505153152 | 33 | 333 | 7.0 | 11.0 | 0.02 | 0.33 | 0.18 | 96 | 1014.4 |
| 20260505152952 | 34 | 316 | 7.0 | 11.0 | 0.02 | 0.33 | 0.18 | 96 | 1014.4 |
| 20260505152752 | 33 | 351 | 7.0 | 11.0 | 0.02 | 0.33 | 0.18 | 96 | 1014.4 |
| 20260505152654 | 33 | 339 | 7.0 | 11.0 | 0.02 | 0.33 | 0.18 | 96 | 1014.4 |
| 20260505152551 | 33 | 333 | 8.0 | 11.0 | 0.02 | 0.33 | 0.18 | 96 | 1014.4 |
| 20260505152351 | 33 | 339 | 8.0 | 11.0 | 0.02 | 0.33 | 0.18 | 96 | 1014.4 |
| 20260505152200 | 33 | 325 | 8.0 | 11.0 | 0.02 | 0.33 | 0.18 | 96 | 1014.6 |
| 20260505152154 | 33 | 321 | 8.0 | 11.0 | 0.02 | 0.33 | 0.18 | 96 | 1014.6 |
| 20260505152150 | 33 | 309 | 8.0 | 11.0 | 0.02 | 0.33 | 0.18 | 96 | 1014.6 |
| 20260505151951 | 33 | 286 | 8.0 | 11.0 | 0.02 | 0.33 | 0.18 | 96 | 1014.6 |
| 20260505151810 | 33 | 311 | 7.0 | 11.0 | 0.02 | 0.33 | 0.18 | 96 | 1014.6 |
| 20260505151550 | 33 | 329 | 7.0 | 11.0 | 0.02 | 0.33 | 0.18 | 96 | 1014.6 |
| 20260505151348 | 33 | 312 | 7.0 | 11.0 | 0.02 | 0.33 | 0.18 | 96 | 1014.6 |
| 20260505151155 | 33 | 328 | 7.0 | 10.0 | 0.01 | 0.32 | 0.18 | 96 | 1014.4 |
| 20260505151149 | 33 | 331 | 7.0 | 10.0 | 0.01 | 0.32 | 0.18 | 96 | 1014.4 |
| 20260505150949 | 33 | 332 | 7.0 | 10.0 | 0.01 | 0.32 | 0.17 | 96 | 1014.4 |
| 20260505150748 | 33 | 339 | 7.0 | 10.0 | 0.01 | 0.32 | 0.17 | 96 | 1014.4 |
| 20260505150653 | 33 | 337 | 7.0 | 10.0 | 0.01 | 0.32 | 0.17 | 96 | 1014.4 |
| 20260505150549 | 33 | 331 | 7.0 | 10.0 | 0.01 | 0.32 | 0.17 | 96 | 1014.4 |
| 20260505150348 | 33 | 336 | 7.0 | 12.0 | 0.01 | 0.32 | 0.17 | 96 | 1014.4 |
| 20260505150154 | 33 | 331 | 8.0 | 12.0 | 0.02 | 0.32 | 0.17 | 96 | 1014.4 |
| 20260505150146 | 33 | 321 | 8.0 | 12.0 | 0.02 | 0.32 | 0.17 | 96 | 1014.4 |
| 20260505140649 | 33 | 338 | 9.0 | 13.0 | 0.01 | 0.31 | 0.16 | 96 | 1014.8 |
| 20260505140531 | 33 | 340 | 8.0 | 14.0 | 0.01 | 0.31 | 0.16 | 96 | 1014.7 |
| 20260505140331 | 33 | 331 | 8.0 | 14.0 | 0.01 | 0.31 | 0.16 | 96 | 1014.8 |
| 20260505140148 | 33 | 324 | 8.0 | 14.0 | 0.00 | 0.30 | 0.15 | 96 | 1014.8 |
| 20260505140131 | 33 | 326 | 8.0 | 14.0 | 0.00 | 0.30 | 0.15 | 96 | 1014.8 |
| 20260505130145 | 34 | 311 | 12.0 | 19.0 | 0.02 | 0.30 | 0.15 | 96 | 1013.6 |
| 20260505130124 | 34 | 334 | 12.0 | 19.0 | 0.02 | 0.30 | 0.15 | 96 | 1013.6 |
| 20260505124925 | 34 | 320 | 13.0 | 22.0 | 0.03 | 0.30 | 0.15 | 96 | 1013.5 |
| 20260505124810 | 34 | 346 | 12.0 | 19.0 | 0.03 | 0.29 | 0.14 | 96 | 1013.1 |
| 20260505124757 | 34 | 303 | 13.0 | 22.0 | 0.03 | 0.30 | 0.15 | 96 | 1013.2 |
| 20260505124524 | 34 | 301 | 13.0 | 18.0 | 0.03 | 0.30 | 0.15 | 96 | 1013.1 |
| 20260505124322 | 34 | 321 | 13.0 | 19.0 | 0.04 | 0.30 | 0.15 | 96 | 1013.1 |
| 20260505124123 | 34 | 308 | 12.0 | 19.0 | 0.03 | 0.29 | 0.14 | 96 | 1013.1 |
| 20260505123923 | 34 | 307 | 13.0 | 19.0 | 0.03 | 0.29 | 0.14 | 95 | 1013.1 |
| 20260505123723 | 34 | 342 | 13.0 | 20.0 | 0.04 | 0.29 | 0.14 | 95 | 1013.0 |
| 20260505123645 | 34 | 333 | 13.0 | 20.0 | 0.04 | 0.29 | 0.14 | 95 | 1013.1 |
| 20260505123524 | 34 | 327 | 13.0 | 20.0 | 0.04 | 0.29 | 0.14 | 95 | 1013.1 |
| 20260505123324 | 34 | 312 | 13.0 | 20.0 | 0.04 | 0.29 | 0.14 | 95 | 1013.1 |
| 20260505123144 | 34 | 318 | 13.0 | 20.0 | 0.04 | 0.29 | 0.14 | 95 | 1013.0 |
| 20260505123124 | 34 | 338 | 13.0 | 20.0 | 0.04 | 0.29 | 0.14 | 95 | 1013.0 |
| 20260505122923 | 34 | 325 | 12.0 | 20.0 | 0.05 | 0.29 | 0.14 | 95 | 1012.9 |
| 20260505122723 | 34 | 344 | 12.0 | 18.0 | 0.06 | 0.29 | 0.14 | 95 | 1012.9 |
| 20260505122644 | 35 | 320 | 12.0 | 18.0 | 0.07 | 0.29 | 0.14 | 95 | 1013.0 |
| 20260505122523 | 35 | 344 | 12.0 | 18.0 | 0.07 | 0.29 | 0.14 | 95 | 1012.9 |
| 20260505122322 | 35 | 342 | 13.0 | 19.0 | 0.08 | 0.29 | 0.14 | 95 | 1013.0 |
| 20260505122145 | 35 | 5 | 13.0 | 19.0 | 0.08 | 0.29 | 0.14 | 95 | 1012.9 |
| 20260505122124 | 35 | 342 | 13.0 | 19.0 | 0.08 | 0.29 | 0.14 | 95 | 1012.9 |
| 20260505121923 | 35 | 319 | 13.0 | 20.0 | 0.08 | 0.28 | 0.13 | 95 | 1012.9 |
| 20260505121723 | 35 | 336 | 13.0 | 20.0 | 0.09 | 0.28 | 0.13 | 95 | 1012.9 |
| 20260505121644 | 35 | 331 | 13.0 | 20.0 | 0.09 | 0.28 | 0.13 | 95 | 1013.0 |
| 20260505121524 | 35 | 321 | 13.0 | 20.0 | 0.09 | 0.28 | 0.13 | 95 | 1013.0 |
| 20260505121323 | 35 | 342 | 12.0 | 20.0 | 0.09 | 0.28 | 0.13 | 95 | 1013.0 |
| 20260505121145 | 35 | 322 | 12.0 | 20.0 | 0.09 | 0.28 | 0.13 | 95 | 1013.0 |
| 20260505121124 | 35 | 346 | 12.0 | 20.0 | 0.10 | 0.28 | 0.13 | 95 | 1013.0 |
| 20260505120924 | 35 | 320 | 12.0 | 19.0 | 0.10 | 0.28 | 0.13 | 95 | 1013.0 |
| 20260505120724 | 35 | 300 | 13.0 | 19.0 | 0.10 | 0.28 | 0.13 | 95 | 1013.1 |
| 20260505120646 | 35 | 315 | 13.0 | 19.0 | 0.10 | 0.28 | 0.13 | 95 | 1013.0 |
| 20260505120524 | 35 | 339 | 13.0 | 19.0 | 0.10 | 0.28 | 0.13 | 95 | 1013.0 |
| 20260505120323 | 36 | 335 | 13.0 | 19.0 | 0.10 | 0.28 | 0.13 | 95 | 1013.0 |
| 20260505120146 | 36 | 346 | 13.0 | 19.0 | 0.10 | 0.28 | 0.13 | 95 | 1013.0 |
| 20260505120123 | 36 | 34 | 13.0 | 19.0 | 0.10 | 0.28 | 0.13 | 95 | 1013.0 |
| 20260505115926 | 36 | 329 | 13.0 | 19.0 | 0.09 | 0.27 | 0.13 | 95 | 1013.0 |
| 20260505115725 | 36 | 332 | 13.0 | 19.0 | 0.09 | 0.27 | 0.12 | 95 | 1013.0 |
| 20260505115646 | 36 | 319 | 13.0 | 19.0 | 0.09 | 0.27 | 0.12 | 95 | 1013.0 |
| 20260505115524 | 36 | 314 | 13.0 | 19.0 | 0.09 | 0.27 | 0.12 | 95 | 1013.0 |
| 20260505115322 | 36 | 337 | 13.0 | 19.0 | 0.09 | 0.27 | 0.12 | 95 | 1013.0 |
| 20260505115146 | 36 | 323 | 13.0 | 19.0 | 0.09 | 0.27 | 0.12 | 95 | 1012.9 |
| 20260505115122 | 36 | 312 | 13.0 | 19.0 | 0.09 | 0.27 | 0.12 | 95 | 1012.9 |
| 20260505114923 | 37 | 318 | 13.0 | 18.0 | 0.09 | 0.27 | 0.12 | 95 | 1012.9 |
| 20260505114724 | 37 | 338 | 13.0 | 18.0 | 0.09 | 0.27 | 0.12 | 95 | 1012.9 |
| 20260505114645 | 37 | 327 | 12.0 | 18.0 | 0.09 | 0.27 | 0.12 | 95 | 1012.9 |
| 20260505114522 | 37 | 315 | 13.0 | 18.0 | 0.09 | 0.27 | 0.12 | 95 | 1012.9 |
| 20260505114324 | 37 | 313 | 12.0 | 18.0 | 0.08 | 0.26 | 0.11 | 95 | 1012.9 |
| 20260505114146 | 37 | 314 | 13.0 | 19.0 | 0.08 | 0.26 | 0.11 | 95 | 1012.9 |
| 20260505114122 | 37 | 332 | 13.0 | 20.0 | 0.08 | 0.26 | 0.11 | 95 | 1012.9 |
| 20260505113923 | 37 | 311 | 13.0 | 20.0 | 0.08 | 0.26 | 0.11 | 95 | 1012.8 |
| 20260505113724 | 37 | 313 | 13.0 | 20.0 | 0.07 | 0.25 | 0.11 | 95 | 1012.9 |
| 20260505113646 | 37 | 325 | 13.0 | 20.0 | 0.07 | 0.25 | 0.10 | 95 | 1012.8 |
| 20260505113523 | 37 | 295 | 13.0 | 20.0 | 0.07 | 0.25 | 0.10 | 95 | 1012.8 |
| 20260505113324 | 37 | 273 | 13.0 | 20.0 | 0.07 | 0.25 | 0.10 | 95 | 1012.9 |
| 20260505113147 | 37 | 292 | 13.0 | 20.0 | 0.07 | 0.25 | 0.10 | 95 | 1012.6 |
| 20260505113123 | 38 | 313 | 13.0 | 20.0 | 0.07 | 0.25 | 0.10 | 95 | 1012.6 |
| 20260505112924 | 38 | 333 | 13.0 | 20.0 | 0.06 | 0.24 | 0.09 | 95 | 1012.6 |
| 20260505112723 | 38 | 322 | 13.0 | 20.0 | 0.05 | 0.23 | 0.08 | 95 | 1012.6 |
| 20260505112644 | 38 | 300 | 13.0 | 20.0 | 0.04 | 0.22 | 0.08 | 95 | 1012.6 |
| 20260505112524 | 38 | 338 | 13.0 | 20.0 | 0.04 | 0.22 | 0.07 | 95 | 1012.6 |
| 20260505112324 | 38 | 314 | 13.0 | 20.0 | 0.03 | 0.21 | 0.06 | 95 | 1012.6 |
| 20260505112146 | 38 | 311 | 12.0 | 20.0 | 0.03 | 0.21 | 0.06 | 95 | 1012.5 |
| 20260505112122 | 38 | 324 | 12.0 | 20.0 | 0.03 | 0.21 | 0.06 | 95 | 1012.5 |
| 20260505111924 | 38 | 322 | 11.0 | 20.0 | 0.02 | 0.20 | 0.05 | 95 | 1012.5 |
| 20260505111722 | 38 | 323 | 11.0 | 20.0 | 0.01 | 0.19 | 0.05 | 95 | 1012.5 |
| 20260505111644 | 38 | 322 | 10.0 | 20.0 | 0.01 | 0.19 | 0.04 | 95 | 1012.5 |
| 20260505111525 | 38 | 327 | 10.0 | 18.0 | 0.01 | 0.19 | 0.04 | 95 | 1012.5 |
| 20260505111323 | 39 | 343 | 10.0 | 17.0 | 0.01 | 0.19 | 0.04 | 95 | 1012.5 |
| 20260505111145 | 39 | 323 | 10.0 | 17.0 | 0.01 | 0.19 | 0.04 | 95 | 1012.5 |
| 20260505111124 | 39 | 313 | 10.0 | 17.0 | 0.00 | 0.18 | 0.03 | 95 | 1012.5 |
| 20260505110924 | 39 | 328 | 10.0 | 17.0 | 0.00 | 0.18 | 0.03 | 95 | 1012.6 |
| 20260505110723 | 39 | 321 | 10.0 | 17.0 | 0.00 | 0.18 | 0.03 | 95 | 1012.5 |
| 20260505110644 | 39 | 334 | 11.0 | 17.0 | 0.00 | 0.18 | 0.03 | 95 | 1012.4 |
| 20260505110524 | 39 | 325 | 11.0 | 17.0 | 0.00 | 0.18 | 0.03 | 95 | 1012.4 |
| 20260505110323 | 39 | 300 | 11.0 | 17.0 | 0.00 | 0.18 | 0.03 | 95 | 1012.4 |
| 20260505110145 | 39 | 317 | 11.0 | 18.0 | 0.00 | 0.18 | 0.03 | 95 | 1012.4 |
| 20260505110125 | 39 | 332 | 11.0 | 18.0 | 0.00 | 0.18 | 0.03 | 95 | 1012.4 |
| 20260505102144 | 43 | 302 | 7.0 | 17.0 | 0.00 | 0.18 | 0.03 | 94 | 1011.7 |
| 20260505102121 | 43 | 311 | 7.0 | 17.0 | 0.00 | 0.18 | 0.03 | 94 | 1011.7 |
| 20260505101922 | 43 | 336 | 5.0 | 17.0 | 0.00 | 0.18 | 0.03 | 94 | 1011.5 |
| 20260505101722 | 43 | 306 | 4.0 | 10.0 | 0.00 | 0.18 | 0.03 | 94 | 1011.4 |
| 20260505101645 | 43 | 306 | 3.0 | 8.0 | 0.00 | 0.18 | 0.03 | 94 | 1011.3 |
| 20260505101522 | 43 | 321 | 3.0 | 5.0 | 0.00 | 0.18 | 0.03 | 94 | 1011.2 |
| 20260505101321 | 43 | 320 | 3.0 | 5.0 | 0.00 | 0.18 | 0.03 | 94 | 1011.3 |
| 20260505101121 | 43 | 327 | 3.0 | 5.0 | 0.00 | 0.18 | 0.03 | 94 | 1011.3 |
| 20260505100922 | 43 | 319 | 3.0 | 5.0 | 0.00 | 0.18 | 0.03 | 94 | 1011.4 |
| 20260505100722 | 43 | 344 | 3.0 | 5.0 | 0.00 | 0.18 | 0.03 | 94 | 1011.3 |
| 20260505100642 | 43 | 335 | 3.0 | 5.0 | 0.00 | 0.18 | 0.03 | 94 | 1011.3 |
| 20260505100522 | 43 | 348 | 3.0 | 6.0 | 0.00 | 0.18 | 0.03 | 94 | 1011.2 |
| 20260505100321 | 43 | 322 | 4.0 | 8.0 | 0.00 | 0.18 | 0.03 | 94 | 1011.3 |
| 20260505100142 | 43 | 339 | 4.0 | 8.0 | 0.00 | 0.18 | 0.03 | 93 | 1011.3 |
| 20260505100122 | 43 | 333 | 4.0 | 8.0 | 0.00 | 0.18 | 0.03 | 93 | 1011.3 |
| 20260505095921 | 44 | 341 | 4.0 | 8.0 | 0.00 | 0.18 | 0.03 | 93 | 1011.3 |
| 20260505095728 | 44 | 296 | 5.0 | 8.0 | 0.00 | 0.18 | 0.03 | 93 | 1011.4 |
| 20260505095720 | 43 | 278 | 4.0 | 8.0 | 0.00 | 0.18 | 0.03 | 93 | 1011.4 |
| 20260505095642 | 43 | 296 | 5.0 | 8.0 | 0.00 | 0.18 | 0.03 | 93 | 1011.4 |
| 20260505095321 | 43 | 323 | 5.0 | 10.0 | 0.00 | 0.18 | 0.03 | 93 | 1011.3 |
| 20260505095144 | 43 | 313 | 5.0 | 10.0 | 0.00 | 0.18 | 0.03 | 93 | 1011.4 |
| 20260505095121 | 44 | 331 | 5.0 | 10.0 | 0.00 | 0.18 | 0.03 | 93 | 1011.4 |
| 20260505094922 | 43 | 313 | 6.0 | 12.0 | 0.00 | 0.18 | 0.03 | 92 | 1011.4 |
| 20260505094722 | 43 | 324 | 7.0 | 12.0 | 0.00 | 0.18 | 0.03 | 92 | 1011.4 |
| 20260505094643 | 43 | 321 | 7.0 | 12.0 | 0.00 | 0.18 | 0.03 | 92 | 1011.4 |
| 20260505094522 | 43 | 302 | 7.0 | 12.0 | 0.00 | 0.18 | 0.03 | 92 | 1011.4 |
| 20260505094322 | 43 | 279 | 7.0 | 12.0 | 0.00 | 0.18 | 0.03 | 91 | 1011.4 |
| 20260505094148 | 43 | 0 | 6.0 | 10.0 | 0.00 | 0.18 | 0.03 | 90 | 1011.1 |
| 20260505094143 | 43 | 284 | 7.0 | 12.0 | 0.00 | 0.18 | 0.03 | 91 | 1011.3 |
| 20260505094120 | 43 | 288 | 7.0 | 12.0 | 0.00 | 0.18 | 0.03 | 91 | 1011.3 |
| 20260505093921 | 43 | 305 | 6.0 | 11.0 | 0.00 | 0.18 | 0.03 | 90 | 1011.3 |
| 20260505093755 | 43 | 306 | 6.0 | 10.0 | 0.00 | 0.18 | 0.03 | 90 | 1011.2 |
| 20260505093521 | 44 | 10 | 5.0 | 10.0 | 0.00 | 0.18 | 0.03 | 90 | 1010.9 |
| 20260505093318 | 44 | 38 | 5.0 | 10.0 | 0.00 | 0.18 | 0.03 | 90 | 1010.9 |
| 20260505093143 | 44 | 51 | 5.0 | 10.0 | 0.00 | 0.18 | 0.03 | 90 | 1010.9 |
| 20260505093118 | 44 | 59 | 5.0 | 10.0 | 0.00 | 0.18 | 0.03 | 90 | 1010.9 |
| 20260505092918 | 44 | 63 | 6.0 | 10.0 | 0.00 | 0.18 | 0.03 | 90 | 1010.9 |
| 20260505092718 | 44 | 43 | 5.0 | 10.0 | 0.00 | 0.18 | 0.03 | 90 | 1010.9 |
| 20260505092648 | 44 | 59 | 4.0 | 8.0 | 0.00 | 0.18 | 0.03 | 89 | 1011.1 |
| 20260505092644 | 44 | 26 | 5.0 | 10.0 | 0.00 | 0.18 | 0.03 | 90 | 1010.9 |
| 20260505092516 | 44 | 65 | 5.0 | 10.0 | 0.00 | 0.18 | 0.03 | 90 | 1010.8 |
| 20260505092313 | 44 | 55 | 5.0 | 8.0 | 0.00 | 0.18 | 0.03 | 89 | 1010.9 |
| 20260505092112 | 44 | 76 | 4.0 | 8.0 | 0.00 | 0.18 | 0.03 | 89 | 1011.1 |
| 20260505091912 | 44 | 74 | 3.0 | 8.0 | 0.00 | 0.18 | 0.03 | 89 | 1011.2 |
| 20260505091710 | 44 | 74 | 2.0 | 7.0 | 0.00 | 0.18 | 0.03 | 89 | 1011.2 |
| 20260505091643 | 44 | 84 | 2.0 | 7.0 | 0.00 | 0.18 | 0.03 | 89 | 1011.3 |
| 20260505091510 | 44 | 59 | 2.0 | 5.0 | 0.00 | 0.18 | 0.03 | 89 | 1011.2 |
| 20260505091312 | 44 | 29 | 2.0 | 5.0 | 0.00 | 0.18 | 0.03 | 89 | 1011.3 |
| 20260505091142 | 44 | 32 | 3.0 | 5.0 | 0.00 | 0.18 | 0.03 | 89 | 1011.3 |
| 20260505091111 | 44 | 39 | 3.0 | 5.0 | 0.00 | 0.18 | 0.03 | 88 | 1011.3 |
| 20260505090911 | 44 | 5 | 4.0 | 7.0 | 0.00 | 0.18 | 0.03 | 88 | 1011.2 |
| 20260505090711 | 44 | 11 | 3.0 | 7.0 | 0.00 | 0.18 | 0.03 | 87 | 1011.3 |
| 20260505090642 | 44 | 38 | 3.0 | 7.0 | 0.00 | 0.18 | 0.03 | 87 | 1011.3 |
| 20260505090511 | 44 | 69 | 3.0 | 7.0 | 0.00 | 0.18 | 0.03 | 87 | 1011.3 |
| 20260505090310 | 44 | 74 | 3.0 | 7.0 | 0.00 | 0.18 | 0.03 | 86 | 1011.3 |
| 20260505090148 | 44 | 65 | 1.0 | 5.0 | 0.00 | 0.18 | 0.03 | 85 | 1011.2 |
| 20260505090143 | 44 | 78 | 2.0 | 7.0 | 0.00 | 0.18 | 0.03 | 86 | 1011.2 |
| 20260505090110 | 44 | 75 | 2.0 | 7.0 | 0.00 | 0.18 | 0.03 | 86 | 1011.2 |
| 20260505085910 | 44 | 80 | 2.0 | 5.0 | 0.00 | 0.18 | 0.03 | 86 | 1011.2 |
| 20260505085754 | 44 | 67 | 2.0 | 5.0 | 0.00 | 0.18 | 0.03 | 85 | 1011.2 |
| 20260505085511 | 44 | 28 | 1.0 | 3.0 | 0.00 | 0.18 | 0.03 | 85 | 1011.2 |
| 20260505085308 | 44 | 347 | 1.0 | 3.0 | 0.00 | 0.18 | 0.03 | 86 | 1011.2 |
| 20260505085143 | 44 | 54 | 2.0 | 4.0 | 0.00 | 0.18 | 0.03 | 86 | 1011.2 |
| 20260505085108 | 44 | 79 | 2.0 | 6.0 | 0.00 | 0.18 | 0.03 | 86 | 1011.2 |
| 20260505084909 | 44 | 88 | 2.0 | 6.0 | 0.00 | 0.18 | 0.03 | 86 | 1011.1 |
| 20260505084708 | 44 | 98 | 2.0 | 6.0 | 0.00 | 0.18 | 0.03 | 86 | 1011.1 |
| 20260505084642 | 44 | 98 | 3.0 | 6.0 | 0.00 | 0.18 | 0.03 | 86 | 1011.1 |
| 20260505084508 | 44 | 105 | 3.0 | 7.0 | 0.00 | 0.18 | 0.03 | 86 | 1011.2 |
| 20260505084306 | 44 | 105 | 3.0 | 7.0 | 0.00 | 0.18 | 0.03 | 86 | 1011.1 |
| 20260505084142 | 44 | 101 | 4.0 | 8.0 | 0.00 | 0.18 | 0.03 | 86 | 1010.9 |
| 20260505084105 | 44 | 93 | 4.0 | 9.0 | 0.00 | 0.18 | 0.03 | 87 | 1011.1 |
| 20260505083902 | 44 | 103 | 4.0 | 9.0 | 0.00 | 0.18 | 0.03 | 87 | 1011.1 |
| 20260505083702 | 44 | 85 | 5.0 | 9.0 | 0.00 | 0.18 | 0.03 | 87 | 1011.1 |
| 20260505083641 | 44 | 94 | 5.0 | 9.0 | 0.00 | 0.18 | 0.03 | 87 | 1010.9 |
| 20260505083503 | 44 | 92 | 6.0 | 9.0 | 0.00 | 0.18 | 0.03 | 87 | 1010.9 |
| 20260505083303 | 44 | 129 | 6.0 | 9.0 | 0.00 | 0.18 | 0.03 | 87 | 1010.9 |
| 20260505083141 | 44 | 110 | 5.0 | 9.0 | 0.00 | 0.18 | 0.03 | 87 | 1010.9 |
| 20260505083102 | 44 | 113 | 5.0 | 9.0 | 0.00 | 0.18 | 0.03 | 87 | 1010.9 |
| 20260505082900 | 44 | 117 | 5.0 | 9.0 | 0.00 | 0.18 | 0.03 | 88 | 1010.9 |
| 20260505082657 | 44 | 104 | 4.0 | 9.0 | 0.01 | 0.18 | 0.03 | 88 | 1010.9 |
| 20260505082648 | 44 | 108 | 3.0 | 7.0 | 0.01 | 0.18 | 0.03 | 88 | 1011.3 |
| 20260505082640 | 44 | 106 | 4.0 | 9.0 | 0.01 | 0.18 | 0.03 | 88 | 1010.9 |
| 20260505082457 | 44 | 99 | 4.0 | 8.0 | 0.01 | 0.18 | 0.03 | 88 | 1011.2 |
| 20260505082304 | 44 | 102 | 3.0 | 7.0 | 0.01 | 0.18 | 0.03 | 88 | 1011.3 |
| 20260505082058 | 44 | 111 | 3.0 | 7.0 | 0.01 | 0.18 | 0.03 | 87 | 1011.3 |
| 20260505081857 | 44 | 80 | 3.0 | 7.0 | 0.01 | 0.18 | 0.03 | 88 | 1011.3 |
| 20260505081657 | 44 | 85 | 2.0 | 6.0 | 0.01 | 0.18 | 0.03 | 88 | 1011.4 |
| 20260505081640 | 44 | 92 | 2.0 | 4.0 | 0.01 | 0.18 | 0.03 | 88 | 1011.4 |
| 20260505081457 | 44 | 84 | 2.0 | 4.0 | 0.01 | 0.18 | 0.03 | 88 | 1011.5 |
| 20260505081254 | 44 | 74 | 2.0 | 7.0 | 0.01 | 0.18 | 0.03 | 88 | 1011.5 |
| 20260505081140 | 44 | 74 | 2.0 | 7.0 | 0.01 | 0.18 | 0.03 | 88 | 1011.5 |
| 20260505081055 | 44 | 74 | 3.0 | 7.0 | 0.01 | 0.18 | 0.03 | 88 | 1011.7 |
| 20260505080852 | 44 | 94 | 3.0 | 7.0 | 0.01 | 0.18 | 0.03 | 89 | 1011.7 |
| 20260505080638 | 44 | 105 | 3.0 | 7.0 | 0.01 | 0.18 | 0.03 | 89 | 1011.7 |
| 20260505080454 | 44 | 113 | 3.0 | 7.0 | 0.01 | 0.18 | 0.03 | 90 | 1011.5 |
| 20260505080252 | 44 | 105 | 2.0 | 6.0 | 0.01 | 0.18 | 0.03 | 91 | 1011.5 |
| 20260505080138 | 44 | 135 | 2.0 | 6.0 | 0.01 | 0.18 | 0.03 | 91 | 1011.7 |
| 20260505080052 | 44 | 144 | 2.0 | 6.0 | 0.01 | 0.18 | 0.03 | 91 | 1011.7 |
| 20260505075852 | 44 | 98 | 2.0 | 4.0 | 0.01 | 0.18 | 0.03 | 91 | 1011.7 |
| 20260505075639 | 44 | 94 | 2.0 | 4.0 | 0.01 | 0.18 | 0.03 | 91 | 1011.7 |
| 20260505075451 | 44 | 101 | 2.0 | 4.0 | 0.01 | 0.18 | 0.03 | 91 | 1011.7 |
| 20260505075246 | 44 | 74 | 2.0 | 4.0 | 0.01 | 0.18 | 0.03 | 91 | 1011.8 |
| 20260505075140 | 44 | 80 | 2.0 | 4.0 | 0.01 | 0.18 | 0.03 | 92 | 1011.8 |
| 20260505075048 | 44 | 90 | 2.0 | 4.0 | 0.01 | 0.18 | 0.03 | 92 | 1011.8 |
| 20260505074848 | 44 | 128 | 2.0 | 4.0 | 0.01 | 0.18 | 0.03 | 92 | 1011.8 |
| 20260505074644 | 44 | 146 | 2.0 | 7.0 | 0.02 | 0.18 | 0.03 | 92 | 1011.9 |
| 20260505074640 | 44 | 80 | 2.0 | 4.0 | 0.01 | 0.18 | 0.03 | 92 | 1011.8 |
| 20260505074446 | 44 | 94 | 2.0 | 4.0 | 0.01 | 0.18 | 0.03 | 92 | 1011.8 |
| 20260505074255 | 44 | 88 | 2.0 | 7.0 | 0.02 | 0.18 | 0.03 | 92 | 1011.9 |
| 20260505074046 | 44 | 115 | 3.0 | 7.0 | 0.02 | 0.18 | 0.03 | 92 | 1011.9 |
| 20260505073844 | 44 | 93 | 3.0 | 7.0 | 0.02 | 0.18 | 0.03 | 92 | 1011.9 |
| 20260505073641 | 44 | 105 | 4.0 | 8.0 | 0.02 | 0.18 | 0.03 | 92 | 1011.9 |
| 20260505073636 | 44 | 98 | 4.0 | 8.0 | 0.02 | 0.18 | 0.03 | 92 | 1011.9 |
| 20260505073443 | 44 | 119 | 4.0 | 8.0 | 0.03 | 0.18 | 0.03 | 92 | 1012.0 |
| 20260505073242 | 44 | 104 | 4.0 | 8.0 | 0.03 | 0.18 | 0.03 | 92 | 1012.0 |
| 20260505073137 | 44 | 119 | 4.0 | 8.0 | 0.03 | 0.18 | 0.03 | 92 | 1012.2 |
| 20260505073039 | 44 | 120 | 4.0 | 8.0 | 0.03 | 0.18 | 0.03 | 92 | 1012.2 |
| 20260505072839 | 44 | 101 | 4.0 | 8.0 | 0.03 | 0.18 | 0.03 | 92 | 1012.2 |
| 20260505072637 | 44 | 122 | 4.0 | 8.0 | 0.02 | 0.17 | 0.02 | 93 | 1012.3 |
| 20260505072437 | 44 | 138 | 4.0 | 8.0 | 0.02 | 0.17 | 0.02 | 93 | 1012.2 |
| 20260505072238 | 44 | 141 | 3.0 | 7.0 | 0.02 | 0.17 | 0.02 | 92 | 1012.2 |
| 20260505072141 | 44 | 111 | 3.0 | 6.0 | 0.02 | 0.17 | 0.02 | 92 | 1012.3 |
| 20260505072136 | 44 | 128 | 3.0 | 6.0 | 0.02 | 0.17 | 0.02 | 92 | 1012.2 |
| 20260505072037 | 44 | 121 | 3.0 | 6.0 | 0.02 | 0.17 | 0.02 | 92 | 1012.2 |
| 20260505071838 | 44 | 112 | 3.0 | 6.0 | 0.02 | 0.17 | 0.02 | 93 | 1012.2 |
| 20260505071740 | 44 | 109 | 3.0 | 6.0 | 0.02 | 0.17 | 0.02 | 93 | 1012.4 |
| 20260505071434 | 44 | 116 | 3.0 | 6.0 | 0.02 | 0.17 | 0.02 | 92 | 1012.4 |
| 20260505071250 | 44 | 116 | 3.0 | 6.0 | 0.02 | 0.17 | 0.02 | 92 | 1012.3 |
| 20260505071036 | 44 | 143 | 3.0 | 6.0 | 0.02 | 0.17 | 0.02 | 93 | 1012.3 |
| 20260505070835 | 44 | 124 | 3.0 | 6.0 | 0.02 | 0.17 | 0.02 | 93 | 1012.3 |
| 20260505070636 | 44 | 169 | 3.0 | 6.0 | 0.02 | 0.17 | 0.02 | 93 | 1012.5 |
| 20260505070436 | 44 | 158 | 3.0 | 6.0 | 0.02 | 0.17 | 0.02 | 93 | 1012.5 |
| 20260505070234 | 44 | 169 | 3.0 | 6.0 | 0.02 | 0.17 | 0.02 | 93 | 1012.5 |
| 20260505070134 | 44 | 173 | 3.0 | 6.0 | 0.02 | 0.17 | 0.02 | 93 | 1012.5 |
| 20260505070034 | 44 | 135 | 3.0 | 6.0 | 0.02 | 0.17 | 0.02 | 93 | 1012.5 |
| 20260505065833 | 44 | 127 | 3.0 | 6.0 | 0.02 | 0.17 | 0.02 | 93 | 1012.6 |
| 20260505065637 | 44 | 117 | 2.0 | 6.0 | 0.02 | 0.17 | 0.02 | 92 | 1012.6 |
| 20260505065633 | 44 | 130 | 2.0 | 6.0 | 0.02 | 0.17 | 0.02 | 92 | 1012.6 |
| 20260505065435 | 44 | 97 | 2.0 | 6.0 | 0.02 | 0.17 | 0.02 | 92 | 1012.6 |
| 20260505065233 | 44 | 103 | 2.0 | 6.0 | 0.02 | 0.17 | 0.02 | 92 | 1012.6 |
| 20260505065133 | 44 | 117 | 2.0 | 6.0 | 0.02 | 0.17 | 0.02 | 92 | 1012.6 |
| 20260505065030 | 44 | 116 | 2.0 | 4.0 | 0.02 | 0.17 | 0.02 | 92 | 1012.6 |
| 20260505064832 | 44 | 118 | 2.0 | 4.0 | 0.02 | 0.17 | 0.02 | 92 | 1012.8 |
| 20260505064631 | 44 | 182 | 2.0 | 4.0 | 0.02 | 0.17 | 0.02 | 92 | 1012.9 |
| 20260505064429 | 44 | 185 | 3.0 | 5.0 | 0.02 | 0.17 | 0.02 | 92 | 1013.0 |
| 20260505064227 | 44 | 188 | 2.0 | 5.0 | 0.01 | 0.16 | 0.01 | 92 | 1013.0 |
| 20260505064134 | 44 | 194 | 2.0 | 5.0 | 0.01 | 0.16 | 0.01 | 92 | 1012.9 |
| 20260505064028 | 44 | 198 | 2.0 | 5.0 | 0.01 | 0.16 | 0.01 | 92 | 1012.9 |
| 20260505063825 | 44 | 202 | 1.0 | 5.0 | 0.01 | 0.16 | 0.01 | 92 | 1013.0 |
| 20260505063622 | 44 | 195 | 1.0 | 5.0 | 0.01 | 0.16 | 0.01 | 92 | 1012.9 |
| 20260505063422 | 44 | 205 | 0.0 | 4.0 | 0.00 | 0.15 | 0.01 | 92 | 1012.9 |
| 20260505063222 | 44 | 122 | 0.0 | 0.0 | 0.00 | 0.15 | 0.00 | 91 | 1013.0 |
| 20260505063135 | 44 | 122 | 0.0 | 0.0 | 0.00 | 0.15 | 0.00 | 91 | 1012.9 |
| 20260505063023 | 44 | 122 | 0.0 | 0.0 | 0.00 | 0.15 | 0.00 | 91 | 1012.9 |
| 20260505062821 | 44 | 122 | 0.0 | 2.0 | 0.00 | 0.15 | 0.00 | 91 | 1012.9 |
| 20260505062620 | 44 | 122 | 0.0 | 2.0 | 0.00 | 0.15 | 0.00 | 91 | 1012.9 |
| 20260505062418 | 44 | 122 | 1.0 | 2.0 | 0.00 | 0.15 | 0.00 | 91 | 1012.9 |
| 20260505062218 | 44 | 122 | 1.0 | 2.0 | 0.00 | 0.15 | 0.00 | 92 | 1012.8 |
| 20260505062133 | 44 | 122 | 1.0 | 2.0 | 0.00 | 0.15 | 0.00 | 92 | 1012.8 |
| 20260505062018 | 44 | 122 | 1.0 | 2.0 | 0.00 | 0.15 | 0.00 | 92 | 1012.9 |
| 20260505061816 | 44 | 122 | 1.0 | 3.0 | 0.00 | 0.15 | 0.00 | 92 | 1012.9 |
| 20260505061614 | 44 | 122 | 1.0 | 3.0 | 0.00 | 0.15 | 0.00 | 92 | 1012.8 |
| 20260505061414 | 44 | 122 | 1.0 | 3.0 | 0.01 | 0.15 | 0.00 | 92 | 1012.9 |
| 20260505061210 | 44 | 120 | 1.0 | 3.0 | 0.01 | 0.15 | 0.00 | 92 | 1012.8 |
| 20260505061136 | 44 | 120 | 1.0 | 3.0 | 0.01 | 0.15 | 0.00 | 92 | 1012.8 |
| 20260505061131 | 44 | 169 | 1.0 | 2.0 | 0.02 | 0.15 | 0.00 | 92 | 1012.9 |
| 20260505061008 | 44 | 120 | 1.0 | 3.0 | 0.01 | 0.15 | 0.00 | 92 | 1012.8 |
| 20260505060810 | 44 | 169 | 1.0 | 2.0 | 0.02 | 0.15 | 0.00 | 92 | 1012.9 |
| 20260505060608 | 44 | 169 | 1.0 | 2.0 | 0.02 | 0.15 | 0.00 | 92 | 1012.9 |
| 20260505060408 | 44 | 169 | 1.0 | 2.0 | 0.02 | 0.15 | 0.00 | 93 | 1012.9 |
| 20260505060209 | 44 | 169 | 1.0 | 2.0 | 0.02 | 0.15 | 0.00 | 93 | 1012.9 |
| 20260505060130 | 44 | 169 | 1.0 | 2.0 | 0.03 | 0.15 | 0.00 | 93 | 1012.9 |
| 20260505060008 | 44 | 169 | 1.0 | 2.0 | 0.03 | 0.15 | 0.00 | 93 | 1012.9 |
| 20260505055803 | 44 | 169 | 1.0 | 2.0 | 0.03 | 0.15 | 0.15 | 93 | 1012.8 |
| 20260505055626 | 44 | 169 | 1.0 | 2.0 | 0.03 | 0.15 | 0.15 | 93 | 1012.8 |
| 20260505055602 | 44 | 169 | 1.0 | 4.0 | 0.03 | 0.15 | 0.15 | 93 | 1012.8 |
| 20260505055400 | 44 | 169 | 1.0 | 4.0 | 0.04 | 0.15 | 0.15 | 93 | 1012.8 |
| 20260505055202 | 44 | 169 | 1.0 | 4.0 | 0.04 | 0.15 | 0.15 | 93 | 1012.8 |
| 20260505055133 | 44 | 169 | 1.0 | 4.0 | 0.04 | 0.15 | 0.15 | 93 | 1012.9 |
| 20260505055127 | 44 | 169 | 1.0 | 4.0 | 0.04 | 0.15 | 0.15 | 93 | 1012.8 |
| 20260505055002 | 44 | 169 | 1.0 | 4.0 | 0.04 | 0.15 | 0.15 | 93 | 1012.8 |
| 20260505054801 | 44 | 169 | 1.0 | 4.0 | 0.04 | 0.15 | 0.15 | 93 | 1012.9 |
| 20260505054601 | 44 | 167 | 1.0 | 4.0 | 0.04 | 0.15 | 0.15 | 93 | 1012.9 |
| 20260505054402 | 44 | 167 | 1.0 | 4.0 | 0.05 | 0.15 | 0.15 | 93 | 1012.9 |
| 20260505054201 | 44 | 167 | 2.0 | 4.0 | 0.05 | 0.15 | 0.15 | 94 | 1012.9 |
| 20260505054126 | 44 | 171 | 2.0 | 4.0 | 0.05 | 0.15 | 0.15 | 94 | 1012.9 |
| 20260505054001 | 44 | 171 | 2.0 | 4.0 | 0.06 | 0.15 | 0.15 | 94 | 1012.8 |
| 20260505053801 | 44 | 167 | 2.0 | 4.0 | 0.06 | 0.15 | 0.15 | 93 | 1012.8 |
| 20260505053624 | 44 | 155 | 2.0 | 3.0 | 0.07 | 0.15 | 0.15 | 93 | 1012.6 |
| 20260505053601 | 44 | 155 | 2.0 | 4.0 | 0.07 | 0.15 | 0.15 | 93 | 1012.6 |
| 20260505053401 | 44 | 147 | 2.0 | 4.0 | 0.07 | 0.15 | 0.15 | 93 | 1012.5 |
| 20260505053201 | 44 | 123 | 3.0 | 5.0 | 0.07 | 0.15 | 0.15 | 93 | 1012.5 |
| 20260505053124 | 44 | 113 | 3.0 | 6.0 | 0.07 | 0.15 | 0.15 | 93 | 1012.5 |
| 20260505053002 | 44 | 113 | 3.0 | 6.0 | 0.07 | 0.15 | 0.15 | 93 | 1012.5 |
| 20260505052801 | 44 | 89 | 3.0 | 6.0 | 0.07 | 0.15 | 0.15 | 93 | 1012.5 |
| 20260505052624 | 44 | 95 | 3.0 | 6.0 | 0.07 | 0.15 | 0.15 | 93 | 1012.6 |
| 20260505052602 | 44 | 103 | 3.0 | 6.0 | 0.07 | 0.15 | 0.15 | 93 | 1012.6 |
| 20260505052359 | 44 | 80 | 2.0 | 6.0 | 0.07 | 0.15 | 0.15 | 93 | 1012.6 |
| 20260505052159 | 44 | 87 | 1.0 | 6.0 | 0.07 | 0.15 | 0.15 | 93 | 1012.6 |
| 20260505052125 | 44 | 86 | 1.0 | 4.0 | 0.07 | 0.15 | 0.15 | 93 | 1012.6 |
| 20260505051958 | 44 | 94 | 1.0 | 3.0 | 0.07 | 0.15 | 0.15 | 93 | 1012.6 |
| 20260505051759 | 44 | 102 | 1.0 | 3.0 | 0.07 | 0.15 | 0.15 | 93 | 1012.8 |
| 20260505051624 | 44 | 59 | 1.0 | 3.0 | 0.07 | 0.15 | 0.15 | 93 | 1012.9 |
| 20260505051601 | 44 | 59 | 1.0 | 4.0 | 0.07 | 0.15 | 0.15 | 93 | 1012.9 |
| 20260505051401 | 44 | 346 | 2.0 | 5.0 | 0.06 | 0.14 | 0.14 | 93 | 1013.0 |
| 20260505051158 | 44 | 331 | 2.0 | 5.0 | 0.06 | 0.14 | 0.14 | 93 | 1013.2 |
| 20260505051125 | 44 | 331 | 2.0 | 5.0 | 0.06 | 0.14 | 0.14 | 93 | 1013.2 |
| 20260505050959 | 44 | 331 | 3.0 | 5.0 | 0.06 | 0.14 | 0.14 | 93 | 1013.4 |
| 20260505050759 | 44 | 340 | 3.0 | 5.0 | 0.05 | 0.13 | 0.13 | 93 | 1013.5 |
| 20260505050630 | 44 | 303 | 4.0 | 8.0 | 0.04 | 0.12 | 0.13 | 93 | 1013.5 |
| 20260505050624 | 44 | 317 | 3.0 | 5.0 | 0.05 | 0.13 | 0.13 | 93 | 1013.5 |
| 20260505050559 | 44 | 325 | 3.0 | 5.0 | 0.05 | 0.13 | 0.13 | 93 | 1013.5 |
| 20260505050359 | 44 | 296 | 3.0 | 7.0 | 0.05 | 0.13 | 0.13 | 93 | 1013.5 |
| 20260505050236 | 44 | 308 | 4.0 | 8.0 | 0.05 | 0.13 | 0.13 | 93 | 1013.5 |
| 20260505041758 | 45 | 336 | 1.0 | 3.0 | 0.07 | 0.08 | 0.08 | 89 | 1013.2 |
| 20260505041624 | 45 | 345 | 1.0 | 3.0 | 0.07 | 0.08 | 0.08 | 89 | 1013.2 |
| 20260505041557 | 45 | 345 | 1.0 | 3.0 | 0.07 | 0.08 | 0.08 | 89 | 1013.2 |
| 20260505041358 | 45 | 345 | 1.0 | 3.0 | 0.07 | 0.08 | 0.08 | 89 | 1013.0 |
| 20260505041157 | 45 | 345 | 1.0 | 3.0 | 0.07 | 0.08 | 0.08 | 89 | 1013.1 |
| 20260505041130 | 45 | 345 | 1.0 | 3.0 | 0.07 | 0.08 | 0.08 | 88 | 1013.0 |
| 20260505041125 | 45 | 345 | 1.0 | 3.0 | 0.07 | 0.08 | 0.08 | 89 | 1013.1 |
| 20260505040957 | 45 | 345 | 1.0 | 3.0 | 0.07 | 0.08 | 0.08 | 89 | 1013.1 |
| 20260505040756 | 45 | 345 | 1.0 | 3.0 | 0.07 | 0.08 | 0.08 | 89 | 1013.0 |
| 20260505040558 | 45 | 345 | 0.0 | 3.0 | 0.07 | 0.08 | 0.08 | 88 | 1013.0 |
| 20260505040358 | 45 | 351 | 0.0 | 2.0 | 0.07 | 0.08 | 0.08 | 88 | 1012.9 |
| 20260505040156 | 46 | 355 | 0.0 | 0.0 | 0.07 | 0.08 | 0.08 | 88 | 1012.9 |
| 20260505040126 | 46 | 355 | 0.0 | 1.0 | 0.07 | 0.08 | 0.08 | 88 | 1012.9 |
| 20260505035957 | 46 | 355 | 0.0 | 2.0 | 0.07 | 0.08 | 0.08 | 87 | 1012.9 |
| 20260505035758 | 46 | 355 | 1.0 | 2.0 | 0.07 | 0.08 | 0.08 | 87 | 1012.8 |
| 20260505035625 | 46 | 355 | 1.0 | 2.0 | 0.07 | 0.08 | 0.08 | 87 | 1012.8 |
| 20260505035556 | 46 | 355 | 1.0 | 2.0 | 0.06 | 0.07 | 0.07 | 87 | 1012.8 |
| 20260505035356 | 46 | 355 | 1.0 | 2.0 | 0.06 | 0.07 | 0.07 | 86 | 1012.6 |
| 20260505035158 | 46 | 355 | 1.0 | 2.0 | 0.06 | 0.07 | 0.07 | 86 | 1012.8 |
| 20260505035124 | 46 | 355 | 1.0 | 2.0 | 0.06 | 0.07 | 0.07 | 86 | 1012.8 |
| 20260505034958 | 46 | 355 | 1.0 | 2.0 | 0.05 | 0.06 | 0.07 | 85 | 1012.8 |
| 20260505034756 | 46 | 355 | 1.0 | 2.0 | 0.05 | 0.06 | 0.06 | 85 | 1012.8 |
| 20260505034625 | 46 | 355 | 0.0 | 2.0 | 0.05 | 0.06 | 0.06 | 85 | 1012.9 |
| 20260505034557 | 46 | 355 | 0.0 | 2.0 | 0.05 | 0.06 | 0.06 | 85 | 1012.9 |
| 20260505034358 | 46 | 270 | 0.0 | 2.0 | 0.04 | 0.05 | 0.06 | 86 | 1012.9 |
| 20260505034158 | 46 | 270 | 1.0 | 2.0 | 0.04 | 0.05 | 0.05 | 86 | 1012.8 |
| 20260505034126 | 46 | 270 | 1.0 | 2.0 | 0.04 | 0.05 | 0.05 | 86 | 1012.8 |
| 20260505033958 | 46 | 270 | 1.0 | 4.0 | 0.04 | 0.05 | 0.05 | 85 | 1012.9 |
| 20260505033758 | 46 | 270 | 2.0 | 4.0 | 0.03 | 0.04 | 0.05 | 85 | 1012.9 |
| 20260505033625 | 47 | 270 | 2.0 | 6.0 | 0.03 | 0.04 | 0.04 | 85 | 1013.0 |
| 20260505033558 | 47 | 270 | 2.0 | 6.0 | 0.03 | 0.04 | 0.04 | 85 | 1012.9 |
| 20260505033358 | 47 | 270 | 3.0 | 6.0 | 0.03 | 0.04 | 0.04 | 84 | 1013.0 |
| 20260505033157 | 47 | 261 | 3.0 | 6.0 | 0.03 | 0.04 | 0.04 | 84 | 1013.0 |
| 20260505033132 | 47 | 234 | 2.0 | 4.0 | 0.00 | 0.01 | 0.02 | 81 | 1012.9 |
| 20260505033126 | 47 | 265 | 3.0 | 6.0 | 0.02 | 0.03 | 0.03 | 84 | 1013.0 |
| 20260505032956 | 47 | 248 | 3.0 | 6.0 | 0.02 | 0.03 | 0.03 | 83 | 1012.9 |
| 20260505032756 | 47 | 266 | 3.0 | 6.0 | 0.02 | 0.03 | 0.03 | 83 | 1012.9 |
| 20260505032625 | 47 | 265 | 3.0 | 6.0 | 0.01 | 0.02 | 0.02 | 82 | 1012.9 |
| 20260505032557 | 47 | 263 | 3.0 | 5.0 | 0.01 | 0.02 | 0.02 | 82 | 1012.8 |
| 20260505032357 | 47 | 247 | 3.0 | 5.0 | 0.01 | 0.02 | 0.02 | 82 | 1012.9 |
| 20260505032236 | 47 | 237 | 2.0 | 4.0 | 0.00 | 0.01 | 0.02 | 81 | 1012.9 |
| 20260505031957 | 48 | 236 | 2.0 | 4.0 | 0.00 | 0.01 | 0.01 | 81 | 1012.8 |
| 20260505031758 | 48 | 242 | 2.0 | 4.0 | 0.00 | 0.01 | 0.01 | 80 | 1012.6 |
| 20260505031626 | 48 | 242 | 2.0 | 4.0 | 0.00 | 0.01 | 0.01 | 80 | 1012.8 |
| 20260505031557 | 48 | 242 | 2.0 | 4.0 | 0.00 | 0.01 | 0.01 | 78 | 1012.8 |
| 20260505031401 | 48 | 238 | 2.0 | 3.0 | 0.00 | 0.01 | 0.01 | 78 | 1012.6 |
| 20260505031157 | 47 | 253 | 2.0 | 3.0 | 0.00 | 0.01 | 0.01 | 78 | 1012.6 |
| 20260505031131 | 47 | 225 | 1.0 | 2.0 | 0.00 | 0.01 | 0.01 | 80 | 1012.5 |
| 20260505031126 | 47 | 253 | 2.0 | 3.0 | 0.00 | 0.01 | 0.01 | 78 | 1012.6 |
| 20260505030958 | 47 | 244 | 1.0 | 3.0 | 0.00 | 0.01 | 0.01 | 79 | 1012.6 |
| 20260505030758 | 47 | 237 | 1.0 | 2.0 | 0.00 | 0.01 | 0.01 | 80 | 1012.6 |
| 20260505030557 | 47 | 221 | 1.0 | 2.0 | 0.00 | 0.01 | 0.01 | 80 | 1012.6 |
| 20260505030358 | 47 | 211 | 1.0 | 2.0 | 0.00 | 0.01 | 0.01 | 79 | 1012.4 |
| 20260505030158 | 47 | 215 | 1.0 | 2.0 | 0.00 | 0.01 | 0.01 | 79 | 1012.4 |
| 20260505030126 | 47 | 217 | 1.0 | 2.0 | 0.00 | 0.01 | 0.01 | 79 | 1012.4 |
| 20260505025958 | 47 | 217 | 1.0 | 2.0 | 0.00 | 0.01 | 0.01 | 79 | 1012.3 |
| 20260505025758 | 47 | 221 | 1.0 | 2.0 | 0.00 | 0.01 | 0.01 | 79 | 1012.3 |
| 20260505025624 | 47 | 221 | 1.0 | 2.0 | 0.00 | 0.01 | 0.01 | 79 | 1012.3 |
| 20260505025558 | 47 | 222 | 1.0 | 2.0 | 0.00 | 0.01 | 0.01 | 79 | 1012.3 |
| 20260505025357 | 47 | 222 | 1.0 | 3.0 | 0.00 | 0.01 | 0.01 | 79 | 1012.3 |
| 20260505025158 | 47 | 222 | 2.0 | 3.0 | 0.00 | 0.01 | 0.01 | 78 | 1012.2 |
| 20260505025132 | 48 | 223 | 4.0 | 6.0 | 0.00 | 0.01 | 0.01 | 77 | 1011.9 |
| 20260505025126 | 47 | 222 | 2.0 | 4.0 | 0.00 | 0.01 | 0.01 | 78 | 1012.2 |
| 20260505024956 | 47 | 212 | 2.0 | 4.0 | 0.00 | 0.01 | 0.01 | 78 | 1012.3 |
| 20260505024758 | 47 | 212 | 3.0 | 5.0 | 0.00 | 0.01 | 0.01 | 78 | 1012.2 |
| 20260505024626 | 47 | 212 | 3.0 | 6.0 | 0.00 | 0.01 | 0.01 | 78 | 1012.2 |
| 20260505024557 | 47 | 213 | 3.0 | 6.0 | 0.00 | 0.01 | 0.01 | 78 | 1012.2 |
| 20260505024356 | 47 | 210 | 4.0 | 6.0 | 0.00 | 0.01 | 0.01 | 78 | 1012.0 |
| 20260505024235 | 47 | 223 | 4.0 | 6.0 | 0.00 | 0.01 | 0.01 | 77 | 1011.9 |
| 20260505023957 | 48 | 217 | 4.0 | 6.0 | 0.00 | 0.01 | 0.01 | 77 | 1011.9 |
| 20260505023757 | 48 | 232 | 4.0 | 7.0 | 0.00 | 0.01 | 0.01 | 77 | 1011.9 |
| 20260505023626 | 48 | 244 | 4.0 | 7.0 | 0.00 | 0.01 | 0.01 | 77 | 1011.9 |
| 20260505023557 | 48 | 231 | 3.0 | 7.0 | 0.00 | 0.01 | 0.01 | 76 | 1011.9 |
| 20260505023356 | 48 | 244 | 3.0 | 7.0 | 0.00 | 0.01 | 0.01 | 76 | 1011.9 |
| 20260505023156 | 48 | 236 | 2.0 | 7.0 | 0.00 | 0.01 | 0.01 | 76 | 1011.9 |
| 20260505023124 | 48 | 234 | 2.0 | 7.0 | 0.00 | 0.01 | 0.01 | 76 | 1011.9 |
| 20260505022958 | 48 | 252 | 2.0 | 7.0 | 0.00 | 0.01 | 0.01 | 75 | 1011.9 |
| 20260505022756 | 48 | 249 | 2.0 | 3.0 | 0.00 | 0.01 | 0.01 | 75 | 1011.8 |
| 20260505022625 | 48 | 277 | 2.0 | 3.0 | 0.00 | 0.01 | 0.01 | 74 | 1011.8 |
| 20260505022556 | 48 | 282 | 2.0 | 3.0 | 0.00 | 0.01 | 0.01 | 74 | 1011.8 |
| 20260505022356 | 48 | 293 | 2.0 | 3.0 | 0.00 | 0.01 | 0.01 | 74 | 1011.8 |
| 20260505022156 | 48 | 291 | 2.0 | 4.0 | 0.01 | 0.01 | 0.01 | 73 | 1011.5 |
| 20260505022124 | 48 | 291 | 2.0 | 4.0 | 0.01 | 0.01 | 0.01 | 73 | 1011.5 |
| 20260505021953 | 49 | 265 | 2.0 | 5.0 | 0.01 | 0.01 | 0.01 | 73 | 1011.7 |
| 20260505021753 | 49 | 247 | 2.0 | 5.0 | 0.01 | 0.01 | 0.01 | 72 | 1011.7 |
| 20260505021624 | 49 | 242 | 2.0 | 5.0 | 0.01 | 0.01 | 0.01 | 72 | 1011.7 |
| 20260505021554 | 49 | 242 | 2.0 | 5.0 | 0.01 | 0.01 | 0.01 | 73 | 1011.5 |
| 20260505021350 | 49 | 242 | 2.0 | 5.0 | 0.01 | 0.01 | 0.01 | 72 | 1011.5 |
| 20260505021152 | 49 | 228 | 2.0 | 5.0 | 0.01 | 0.01 | 0.01 | 71 | 1011.5 |
| 20260505021125 | 49 | 229 | 2.0 | 5.0 | 0.01 | 0.01 | 0.01 | 71 | 1011.5 |
| 20260505020951 | 49 | 224 | 1.0 | 4.0 | 0.01 | 0.01 | 0.01 | 71 | 1011.5 |
| 20260505020750 | 49 | 236 | 1.0 | 3.0 | 0.01 | 0.01 | 0.01 | 72 | 1011.5 |
| 20260505020625 | 49 | 236 | 0.0 | 3.0 | 0.01 | 0.01 | 0.01 | 72 | 1011.5 |
| 20260505020546 | 49 | 244 | 0.0 | 3.0 | 0.01 | 0.01 | 0.01 | 72 | 1011.5 |
| 20260505020346 | 49 | 32 | 0.0 | 2.0 | 0.01 | 0.01 | 0.01 | 71 | 1011.7 |
| 20260505020124 | 49 | 32 | 1.0 | 2.0 | 0.01 | 0.01 | 0.01 | 70 | 1011.8 |
| 20260505015944 | 49 | 32 | 1.0 | 4.0 | 0.01 | 0.01 | 0.01 | 70 | 1011.8 |
| 20260505015742 | 49 | 32 | 1.0 | 4.0 | 0.01 | 0.01 | 0.01 | 71 | 1011.8 |
| 20260505015626 | 49 | 32 | 1.0 | 4.0 | 0.01 | 0.01 | 0.01 | 71 | 1011.8 |
| 20260505015539 | 49 | 32 | 1.0 | 4.0 | 0.01 | 0.01 | 0.01 | 71 | 1011.8 |
| 20260505015340 | 49 | 32 | 1.0 | 4.0 | 0.01 | 0.01 | 0.01 | 71 | 1011.7 |
| 20260505015123 | 49 | 45 | 1.0 | 4.0 | 0.01 | 0.01 | 0.01 | 71 | 1011.5 |
| 20260505014936 | 49 | 355 | 1.0 | 2.0 | 0.01 | 0.01 | 0.01 | 71 | 1011.7 |
| 20260505014737 | 49 | 309 | 0.0 | 2.0 | 0.01 | 0.01 | 0.01 | 72 | 1011.7 |
| 20260505014623 | 49 | 309 | 0.0 | 2.0 | 0.01 | 0.01 | 0.01 | 72 | 1011.7 |
| 20260505014536 | 49 | 275 | 0.0 | 2.0 | 0.01 | 0.01 | 0.01 | 72 | 1011.7 |
| 20260505014336 | 49 | 275 | 0.0 | 2.0 | 0.01 | 0.01 | 0.01 | 72 | 1011.5 |
| 20260505014123 | 50 | 275 | 0.0 | 2.0 | 0.01 | 0.01 | 0.01 | 71 | 1011.4 |
| 20260505013936 | 50 | 275 | 1.0 | 3.0 | 0.01 | 0.01 | 0.01 | 70 | 1011.2 |
| 20260505013733 | 50 | 275 | 1.0 | 6.0 | 0.01 | 0.01 | 0.01 | 69 | 1011.1 |
| 20260505013620 | 50 | 275 | 1.0 | 6.0 | 0.01 | 0.01 | 0.01 | 68 | 1011.1 |
| 20260505013535 | 50 | 275 | 1.0 | 6.0 | 0.01 | 0.01 | 0.01 | 68 | 1011.1 |
| 20260505013336 | 50 | 271 | 2.0 | 6.0 | 0.01 | 0.01 | 0.01 | 68 | 1011.2 |
| 20260505013120 | 50 | 271 | 2.0 | 6.0 | 0.01 | 0.01 | 0.01 | 68 | 1011.3 |
| 20260505012936 | 50 | 287 | 2.0 | 6.0 | 0.01 | 0.01 | 0.01 | 67 | 1011.4 |
| 20260505012735 | 51 | 250 | 2.0 | 5.0 | 0.01 | 0.01 | 0.01 | 68 | 1011.4 |
| 20260505012620 | 51 | 294 | 1.0 | 5.0 | 0.01 | 0.01 | 0.01 | 67 | 1011.4 |
| 20260505012537 | 51 | 294 | 1.0 | 5.0 | 0.01 | 0.01 | 0.01 | 66 | 1011.5 |
| 20260505012335 | 51 | 297 | 1.0 | 5.0 | 0.01 | 0.01 | 0.01 | 66 | 1011.5 |
| 20260505012134 | 51 | 317 | 0.0 | 2.0 | 0.00 | 0.00 | 0.01 | 65 | 1011.5 |
| 20260505012120 | 51 | 325 | 0.0 | 2.0 | 0.00 | 0.00 | 0.00 | 65 | 1011.5 |
| 20260505011930 | 51 | 325 | 0.0 | 3.0 | 0.00 | 0.00 | 0.00 | 66 | 1011.5 |
| 20260505011728 | 51 | 325 | 1.0 | 4.0 | 0.00 | 0.00 | 0.00 | 64 | 1011.5 |
| 20260505011622 | 51 | 325 | 1.0 | 4.0 | 0.00 | 0.00 | 0.00 | 64 | 1011.4 |
| 20260505011526 | 51 | 325 | 2.0 | 5.0 | 0.00 | 0.00 | 0.00 | 63 | 1011.4 |
| 20260505011326 | 51 | 325 | 2.0 | 5.0 | 0.00 | 0.00 | 0.00 | 63 | 1011.4 |
| 20260505011120 | 51 | 325 | 3.0 | 17.0 | 0.00 | 0.00 | 0.00 | 62 | 1011.5 |
| 20260505010926 | 51 | 308 | 5.0 | 17.0 | 0.00 | 0.00 | 0.00 | 62 | 1011.5 |
| 20260505010726 | 51 | 313 | 5.0 | 17.0 | 0.00 | 0.00 | 0.00 | 62 | 1011.5 |
| 20260505010621 | 51 | 320 | 6.0 | 17.0 | 0.00 | 0.00 | 0.00 | 62 | 1011.4 |
| 20260505010523 | 51 | 326 | 7.0 | 17.0 | 0.00 | 0.00 | 0.00 | 62 | 1011.4 |
| 20260505010323 | 52 | 310 | 8.0 | 17.0 | 0.00 | 0.00 | 0.00 | 64 | 1011.4 |
| 20260505010120 | 52 | 279 | 10.0 | 17.0 | 0.00 | 0.00 | 0.00 | 63 | 1011.4 |
| 20260505005920 | 52 | 301 | 10.0 | 17.0 | 0.00 | 0.00 | 0.00 | 60 | 1011.4 |
| 20260505005722 | 53 | 270 | 11.0 | 17.0 | 0.00 | 0.00 | 0.00 | 58 | 1011.3 |
| 20260505005620 | 53 | 304 | 11.0 | 17.0 | 0.00 | 0.00 | 0.00 | 57 | 1011.4 |
| 20260505005518 | 53 | 311 | 12.0 | 17.0 | 0.00 | 0.00 | 0.00 | 56 | 1011.4 |
| 20260505005318 | 53 | 326 | 11.0 | 19.0 | 0.00 | 0.00 | 0.00 | 53 | 1011.2 |
| 20260505005124 | 54 | 319 | 11.0 | 19.0 | 0.00 | 0.00 | 0.00 | 53 | 1011.2 |
| 20260505005120 | 54 | 335 | 11.0 | 19.0 | 0.00 | 0.00 | 0.00 | 53 | 1011.2 |
| 20260505004923 | 54 | 331 | 11.0 | 19.0 | 0.00 | 0.00 | 0.00 | 52 | 1011.2 |
| 20260505004719 | 55 | 315 | 11.0 | 19.0 | 0.00 | 0.00 | 0.00 | 50 | 1011.2 |
| 20260505004622 | 55 | 321 | 10.0 | 19.0 | 0.00 | 0.00 | 0.00 | 50 | 1011.2 |
| 20260505004518 | 55 | 325 | 10.0 | 19.0 | 0.00 | 0.00 | 0.00 | 49 | 1011.2 |
| 20260505004319 | 55 | 300 | 10.0 | 16.0 | 0.00 | 0.00 | 0.00 | 49 | 1011.2 |
| 20260505004118 | 55 | 309 | 9.0 | 16.0 | 0.00 | 0.00 | 0.00 | 48 | 1011.1 |
| 20260505003918 | 55 | 315 | 8.0 | 13.0 | 0.00 | 0.00 | 0.00 | 48 | 1011.1 |
| 20260505003720 | 55 | 312 | 8.0 | 13.0 | 0.00 | 0.00 | 0.00 | 48 | 1010.9 |
| 20260505003620 | 56 | 308 | 7.0 | 13.0 | 0.00 | 0.00 | 0.00 | 47 | 1010.9 |
| 20260505003519 | 56 | 273 | 7.0 | 13.0 | 0.00 | 0.00 | 0.00 | 47 | 1011.1 |
| 20260505003318 | 56 | 310 | 6.0 | 13.0 | 0.00 | 0.00 | 0.00 | 47 | 1011.1 |
| 20260505003118 | 56 | 298 | 5.0 | 13.0 | 0.00 | 0.00 | 0.00 | 44 | 1011.1 |
| 20260505002919 | 56 | 280 | 4.0 | 9.0 | 0.00 | 0.00 | 0.00 | 43 | 1011.1 |
| 20260505002718 | 56 | 297 | 3.0 | 9.0 | 0.00 | 0.00 | 0.00 | 44 | 1011.1 |
| 20260505002619 | 56 | 294 | 3.0 | 9.0 | 0.00 | 0.00 | 0.00 | 44 | 1011.1 |
| 20260505002518 | 56 | 294 | 3.0 | 9.0 | 0.00 | 0.00 | 0.00 | 44 | 1011.1 |
| 20260505002316 | 56 | 5 | 3.0 | 8.0 | 0.00 | 0.00 | 0.00 | 44 | 1011.1 |
| 20260505002126 | 56 | 78 | 7.0 | 17.0 | 0.00 | 0.00 | 0.00 | 45 | 1010.8 |
| 20260505002116 | 56 | 228 | 3.0 | 7.0 | 0.00 | 0.00 | 0.00 | 44 | 1010.9 |
| 20260505001918 | 56 | 15 | 4.0 | 12.0 | 0.00 | 0.00 | 0.00 | 44 | 1010.8 |
| 20260505001714 | 56 | 69 | 6.0 | 13.0 | 0.00 | 0.00 | 0.00 | 44 | 1010.8 |
| 20260505001649 | 56 | 69 | 9.0 | 17.0 | 0.00 | 0.00 | 0.00 | 45 | 1010.7 |
| 20260505001514 | 56 | 93 | 8.0 | 17.0 | 0.00 | 0.00 | 0.00 | 45 | 1010.8 |
| 20260505001312 | 56 | 76 | 8.0 | 17.0 | 0.00 | 0.00 | 0.00 | 45 | 1010.8 |
| 20260505001238 | 56 | 76 | 7.0 | 15.0 | 0.00 | 0.00 | 0.00 | 44 | 1010.6 |
| 20260505001114 | 56 | 76 | 9.0 | 17.0 | 0.00 | 0.00 | 0.00 | 45 | 1010.7 |
| 20260505000913 | 56 | 84 | 9.0 | 17.0 | 0.00 | 0.00 | 0.00 | 44 | 1010.6 |
| 20260505000732 | 56 | 88 | 8.0 | 17.0 | 0.00 | 0.00 | 0.00 | 44 | 1010.6 |
| 20260505000512 | 56 | 84 | 7.0 | 15.0 | 0.00 | 0.00 | 0.00 | 43 | 1010.6 |
| 20260505000311 | 56 | 78 | 6.0 | 15.0 | 0.00 | 0.00 | 0.00 | 43 | 1010.6 |
| 20260505000117 | 56 | 69 | 7.0 | 15.0 | 0.00 | 0.00 | 0.00 | 42 | 1010.5 |
| 20260505000112 | 56 | 73 | 7.0 | 15.0 | 0.00 | 0.00 | 0.00 | 42 | 1010.5 |
| 20260504235911 | 57 | 76 | 6.0 | 14.0 | 0.00 | 0.00 | 0.00 | 42 | 1010.6 |
| 20260504235711 | 57 | 50 | 6.0 | 14.0 | 0.00 | 0.00 | 0.00 | 42 | 1010.5 |
| 20260504235616 | 57 | 71 | 6.0 | 14.0 | 0.00 | 0.00 | 0.00 | 41 | 1010.6 |
| 20260504235509 | 57 | 73 | 6.0 | 14.0 | 0.00 | 0.00 | 0.00 | 41 | 1010.6 |
| 20260504235309 | 57 | 109 | 6.0 | 14.0 | 0.00 | 0.00 | 0.00 | 41 | 1010.5 |
| 20260504235122 | 57 | 22 | 6.0 | 14.0 | 0.00 | 0.00 | 0.00 | 40 | 1010.3 |
| 20260504235116 | 57 | 63 | 5.0 | 13.0 | 0.00 | 0.00 | 0.00 | 41 | 1010.5 |
| 20260504235109 | 57 | 55 | 5.0 | 13.0 | 0.00 | 0.00 | 0.00 | 41 | 1010.5 |
| 20260504234910 | 57 | 30 | 5.0 | 14.0 | 0.00 | 0.00 | 0.00 | 40 | 1010.5 |
| 20260504234743 | 58 | 115 | 7.0 | 14.0 | 0.00 | 0.00 | 0.00 | 41 | 1010.3 |
| 20260504234732 | 57 | 26 | 6.0 | 14.0 | 0.00 | 0.00 | 0.00 | 40 | 1010.3 |
| 20260504234509 | 57 | 26 | 6.0 | 14.0 | 0.00 | 0.00 | 0.00 | 39 | 1010.3 |
| 20260504234306 | 58 | 67 | 6.0 | 14.0 | 0.00 | 0.00 | 0.00 | 40 | 1010.3 |
| 20260504234108 | 58 | 163 | 7.0 | 14.0 | 0.00 | 0.00 | 0.00 | 41 | 1010.3 |
| 20260504233907 | 58 | 51 | 7.0 | 12.0 | 0.00 | 0.00 | 0.00 | 39 | 1010.3 |
| 20260504233707 | 59 | 40 | 7.0 | 12.0 | 0.00 | 0.00 | 0.00 | 37 | 1010.3 |
| 20260504233617 | 59 | 44 | 7.0 | 11.0 | 0.00 | 0.00 | 0.00 | 37 | 1010.3 |
| 20260504233507 | 59 | 5 | 7.0 | 11.0 | 0.00 | 0.00 | 0.00 | 37 | 1010.2 |
| 20260504233307 | 59 | 13 | 7.0 | 12.0 | 0.00 | 0.00 | 0.00 | 36 | 1010.2 |
| 20260504233114 | 59 | 38 | 7.0 | 12.0 | 0.00 | 0.00 | 0.00 | 36 | 1010.3 |
| 20260504233105 | 59 | 37 | 7.0 | 12.0 | 0.00 | 0.00 | 0.00 | 36 | 1010.3 |
| 20260504232904 | 59 | 11 | 7.0 | 12.0 | 0.00 | 0.00 | 0.00 | 36 | 1010.1 |
| 20260504232706 | 59 | 35 | 7.0 | 12.0 | 0.00 | 0.00 | 0.00 | 37 | 1010.2 |
| 20260504232616 | 59 | 38 | 7.0 | 12.0 | 0.00 | 0.00 | 0.00 | 38 | 1010.2 |
| 20260504232506 | 59 | 48 | 7.0 | 12.0 | 0.00 | 0.00 | 0.00 | 37 | 1010.2 |
| 20260504232306 | 59 | 23 | 7.0 | 12.0 | 0.00 | 0.00 | 0.00 | 38 | 1010.1 |
| 20260504232119 | 60 | 29 | 9.0 | 17.0 | 0.00 | 0.00 | 0.00 | 35 | 1010.2 |
| 20260504232113 | 59 | 46 | 8.0 | 12.0 | 0.00 | 0.00 | 0.00 | 37 | 1010.1 |
| 20260504232105 | 59 | 28 | 8.0 | 12.0 | 0.00 | 0.00 | 0.00 | 37 | 1010.1 |
| 20260504231904 | 59 | 46 | 8.0 | 17.0 | 0.00 | 0.00 | 0.00 | 36 | 1010.2 |
| 20260504231730 | 60 | 52 | 9.0 | 17.0 | 0.00 | 0.00 | 0.00 | 35 | 1010.2 |
| 20260504231502 | 60 | 49 | 9.0 | 17.0 | 0.00 | 0.00 | 0.00 | 35 | 1010.1 |
| 20260504231303 | 60 | 41 | 10.0 | 18.0 | 0.00 | 0.00 | 0.00 | 34 | 1010.0 |
| 20260504231115 | 60 | 34 | 10.0 | 18.0 | 0.00 | 0.00 | 0.00 | 34 | 1009.9 |
| 20260504231103 | 60 | 5 | 10.0 | 18.0 | 0.00 | 0.00 | 0.00 | 34 | 1009.9 |
| 20260504230903 | 60 | 26 | 10.0 | 18.0 | 0.00 | 0.00 | 0.00 | 34 | 1010.0 |
| 20260504230701 | 60 | 20 | 10.0 | 18.0 | 0.00 | 0.00 | 0.00 | 34 | 1009.9 |
| 20260504230614 | 60 | 28 | 11.0 | 18.0 | 0.00 | 0.00 | 0.00 | 34 | 1009.9 |
| 20260504230502 | 60 | 5 | 11.0 | 18.0 | 0.00 | 0.00 | 0.00 | 34 | 1009.7 |
| 20260504230302 | 61 | 22 | 11.0 | 18.0 | 0.00 | 0.00 | 0.00 | 33 | 1009.5 |
| 20260504230115 | 61 | 5 | 12.0 | 18.0 | 0.00 | 0.00 | 0.00 | 33 | 1009.4 |
| 20260504225901 | 61 | 348 | 12.0 | 21.0 | 0.00 | 0.00 | 0.00 | 32 | 1009.2 |
| 20260504225702 | 61 | 355 | 10.0 | 21.0 | 0.00 | 0.00 | 0.00 | 32 | 1009.2 |
| 20260504225615 | 62 | 36 | 10.0 | 21.0 | 0.00 | 0.00 | 0.00 | 32 | 1009.2 |
| 20260504225459 | 62 | 331 | 8.0 | 21.0 | 0.00 | 0.00 | 0.00 | 32 | 1009.1 |
| 20260504225259 | 62 | 355 | 7.0 | 21.0 | 0.00 | 0.00 | 0.00 | 31 | 1009.2 |
| 20260504225125 | 64 | 42 | 2.0 | 5.0 | 0.00 | 0.00 | 0.00 | 29 | 1008.6 |
| 20260504225114 | 63 | 10 | 6.0 | 21.0 | 0.00 | 0.00 | 0.00 | 30 | 1009.1 |
| 20260504225100 | 63 | 36 | 6.0 | 21.0 | 0.00 | 0.00 | 0.00 | 30 | 1008.9 |
| 20260504224859 | 63 | 11 | 5.0 | 13.0 | 0.00 | 0.00 | 0.00 | 29 | 1008.9 |
| 20260504224730 | 63 | 5 | 5.0 | 9.0 | 0.00 | 0.00 | 0.00 | 28 | 1008.9 |
| 20260504224614 | 63 | 355 | 5.0 | 9.0 | 0.00 | 0.00 | 0.00 | 28 | 1008.9 |
| 20260504224459 | 63 | 321 | 5.0 | 9.0 | 0.00 | 0.00 | 0.00 | 29 | 1008.8 |
| 20260504224257 | 64 | 329 | 5.0 | 9.0 | 0.00 | 0.00 | 0.00 | 29 | 1008.9 |
| 20260504224112 | 64 | 338 | 4.0 | 9.0 | 0.00 | 0.00 | 0.00 | 29 | 1008.9 |
| 20260504224058 | 64 | 338 | 4.0 | 9.0 | 0.00 | 0.00 | 0.00 | 29 | 1008.8 |
| 20260504223856 | 64 | 355 | 4.0 | 6.0 | 0.00 | 0.00 | 0.00 | 29 | 1008.8 |
| 20260504223730 | 64 | 5 | 3.0 | 6.0 | 0.00 | 0.00 | 0.00 | 29 | 1008.6 |
| 20260504223613 | 64 | 349 | 3.0 | 6.0 | 0.00 | 0.00 | 0.00 | 29 | 1008.6 |
| 20260504223457 | 64 | 9 | 3.0 | 5.0 | 0.00 | 0.00 | 0.00 | 29 | 1008.6 |
| 20260504223257 | 64 | 38 | 2.0 | 5.0 | 0.00 | 0.00 | 0.00 | 27 | 1008.6 |
| 20260504223055 | 64 | 47 | 2.0 | 5.0 | 0.00 | 0.00 | 0.00 | 29 | 1008.5 |
| 20260504222855 | 64 | 21 | 2.0 | 4.0 | 0.00 | 0.00 | 0.00 | 27 | 1008.5 |
| 20260504222655 | 64 | 56 | 2.0 | 5.0 | 0.00 | 0.00 | 0.00 | 28 | 1008.6 |
| 20260504222613 | 64 | 11 | 2.0 | 6.0 | 0.00 | 0.00 | 0.00 | 28 | 1008.6 |
| 20260504222455 | 64 | 20 | 3.0 | 6.0 | 0.00 | 0.00 | 0.00 | 27 | 1008.8 |
| 20260504222254 | 64 | 30 | 4.0 | 9.0 | 0.00 | 0.00 | 0.00 | 27 | 1008.8 |
| 20260504222114 | 64 | 30 | 4.0 | 9.0 | 0.00 | 0.00 | 0.00 | 28 | 1008.8 |
| 20260504222054 | 64 | 5 | 4.0 | 9.0 | 0.00 | 0.00 | 0.00 | 28 | 1008.8 |
| 20260504221852 | 64 | 9 | 5.0 | 9.0 | 0.00 | 0.00 | 0.00 | 27 | 1008.8 |
| 20260504221653 | 64 | 322 | 6.0 | 10.0 | 0.00 | 0.00 | 0.00 | 27 | 1008.8 |
| 20260504221610 | 64 | 324 | 6.0 | 10.0 | 0.00 | 0.00 | 0.00 | 27 | 1008.8 |
| 20260504221454 | 64 | 315 | 7.0 | 10.0 | 0.00 | 0.00 | 0.00 | 27 | 1008.6 |
| 20260504221253 | 64 | 296 | 7.0 | 11.0 | 0.00 | 0.00 | 0.00 | 28 | 1008.6 |
| 20260504221110 | 64 | 302 | 7.0 | 11.0 | 0.00 | 0.00 | 0.00 | 27 | 1008.6 |
| 20260504221052 | 64 | 300 | 7.0 | 11.0 | 0.00 | 0.00 | 0.00 | 27 | 1008.8 |
| 20260504220853 | 64 | 330 | 6.0 | 11.0 | 0.00 | 0.00 | 0.00 | 28 | 1008.8 |
| 20260504220651 | 64 | 344 | 6.0 | 11.0 | 0.00 | 0.00 | 0.00 | 29 | 1008.8 |
| 20260504220611 | 64 | 338 | 6.0 | 11.0 | 0.00 | 0.00 | 0.00 | 29 | 1008.8 |
| 20260504220452 | 64 | 355 | 6.0 | 11.0 | 0.00 | 0.00 | 0.00 | 28 | 1008.8 |
| 20260504220247 | 64 | 21 | 6.0 | 11.0 | 0.00 | 0.00 | 0.00 | 28 | 1008.8 |
| 20260504220109 | 64 | 9 | 6.0 | 15.0 | 0.00 | 0.00 | 0.00 | 27 | 1008.8 |
| 20260504220050 | 64 | 9 | 6.0 | 15.0 | 0.00 | 0.00 | 0.00 | 27 | 1008.8 |
| 20260504215848 | 64 | 52 | 5.0 | 15.0 | 0.00 | 0.00 | 0.00 | 29 | 1008.8 |
| 20260504215646 | 64 | 29 | 4.0 | 15.0 | 0.00 | 0.00 | 0.00 | 28 | 1008.8 |
| 20260504215610 | 64 | 20 | 4.0 | 15.0 | 0.00 | 0.00 | 0.00 | 28 | 1008.8 |
| 20260504215446 | 64 | 5 | 4.0 | 15.0 | 0.00 | 0.00 | 0.00 | 30 | 1008.8 |
| 20260504215246 | 64 | 22 | 3.0 | 15.0 | 0.00 | 0.00 | 0.00 | 30 | 1008.8 |
| 20260504215111 | 64 | 285 | 2.0 | 8.0 | 0.00 | 0.00 | 0.00 | 28 | 1008.8 |
| 20260504215047 | 64 | 288 | 2.0 | 7.0 | 0.00 | 0.00 | 0.00 | 28 | 1008.9 |
| 20260504214846 | 64 | 44 | 5.0 | 19.0 | 0.00 | 0.00 | 0.00 | 29 | 1008.9 |
| 20260504214647 | 63 | 153 | 7.0 | 19.0 | 0.00 | 0.00 | 0.00 | 29 | 1008.9 |
| 20260504214615 | 64 | 273 | 9.0 | 19.0 | 0.00 | 0.00 | 0.00 | 29 | 1009.1 |
| 20260504214611 | 63 | 217 | 7.0 | 19.0 | 0.00 | 0.00 | 0.00 | 29 | 1008.9 |
| 20260504214447 | 63 | 217 | 8.0 | 19.0 | 0.00 | 0.00 | 0.00 | 27 | 1009.0 |
| 20260504214248 | 64 | 142 | 9.0 | 19.0 | 0.00 | 0.00 | 0.00 | 29 | 1009.1 |
| 20260504214050 | 64 | 322 | 9.0 | 19.0 | 0.00 | 0.00 | 0.00 | 29 | 1009.2 |
| 20260504213847 | 64 | 338 | 8.0 | 19.0 | 0.00 | 0.00 | 0.00 | 30 | 1009.1 |
| 20260504213646 | 63 | 314 | 7.0 | 10.0 | 0.00 | 0.00 | 0.00 | 29 | 1009.1 |
| 20260504213610 | 63 | 303 | 7.0 | 10.0 | 0.00 | 0.00 | 0.00 | 29 | 1009.1 |
| 20260504213446 | 63 | 324 | 7.0 | 10.0 | 0.00 | 0.00 | 0.00 | 29 | 1009.1 |
| 20260504213248 | 63 | 305 | 7.0 | 11.0 | 0.00 | 0.00 | 0.00 | 28 | 1009.1 |
| 20260504213111 | 63 | 332 | 7.0 | 11.0 | 0.00 | 0.00 | 0.00 | 30 | 1009.2 |
| 20260504213045 | 63 | 330 | 7.0 | 11.0 | 0.00 | 0.00 | 0.00 | 30 | 1009.2 |
| 20260504212845 | 63 | 334 | 7.0 | 11.0 | 0.00 | 0.00 | 0.00 | 29 | 1009.2 |
| 20260504212648 | 63 | 310 | 8.0 | 12.0 | 0.00 | 0.00 | 0.00 | 29 | 1009.2 |
| 20260504212615 | 63 | 346 | 9.0 | 17.0 | 0.00 | 0.00 | 0.00 | 28 | 1009.2 |
| 20260504212609 | 63 | 313 | 8.0 | 14.0 | 0.00 | 0.00 | 0.00 | 29 | 1009.2 |
| 20260504212444 | 63 | 317 | 9.0 | 17.0 | 0.00 | 0.00 | 0.00 | 28 | 1009.2 |
| 20260504212244 | 63 | 306 | 9.0 | 17.0 | 0.00 | 0.00 | 0.00 | 29 | 1009.2 |
| 20260504212229 | 63 | 355 | 9.0 | 17.0 | 0.00 | 0.00 | 0.00 | 29 | 1009.1 |
| 20260504212046 | 63 | 327 | 9.0 | 17.0 | 0.00 | 0.00 | 0.00 | 28 | 1009.2 |
| 20260504211842 | 63 | 335 | 10.0 | 17.0 | 0.00 | 0.00 | 0.00 | 28 | 1009.2 |
| 20260504211720 | 63 | 336 | 9.0 | 17.0 | 0.00 | 0.00 | 0.00 | 28 | 1009.1 |
| 20260504211443 | 64 | 355 | 9.0 | 15.0 | 0.00 | 0.00 | 0.00 | 28 | 1009.1 |
| 20260504211243 | 64 | 344 | 9.0 | 15.0 | 0.00 | 0.00 | 0.00 | 28 | 1009.2 |
| 20260504211109 | 64 | 347 | 10.0 | 15.0 | 0.00 | 0.00 | 0.00 | 29 | 1009.1 |
| 20260504211042 | 64 | 340 | 10.0 | 15.0 | 0.00 | 0.00 | 0.00 | 29 | 1009.1 |
| 20260504210842 | 64 | 5 | 10.0 | 16.0 | 0.00 | 0.00 | 0.00 | 30 | 1009.1 |
| 20260504210642 | 64 | 344 | 10.0 | 16.0 | 0.00 | 0.00 | 0.00 | 29 | 1009.1 |
| 20260504210610 | 64 | 35 | 10.0 | 16.0 | 0.00 | 0.00 | 0.00 | 29 | 1009.1 |
| 20260504210441 | 64 | 334 | 10.0 | 16.0 | 0.00 | 0.00 | 0.00 | 29 | 1009.2 |
| 20260504210243 | 64 | 355 | 10.0 | 16.0 | 0.00 | 0.00 | 0.00 | 29 | 1009.2 |
| 20260504210110 | 64 | 0 | 10.0 | 16.0 | 0.00 | 0.00 | 0.00 | 29 | 1009.2 |
| 20260504210043 | 64 | 345 | 10.0 | 16.0 | 0.00 | 0.00 | 0.00 | 29 | 1009.2 |
| 20260504205843 | 64 | 347 | 9.0 | 16.0 | 0.00 | 0.00 | 0.00 | 29 | 1009.2 |
| 20260504205641 | 64 | 355 | 9.0 | 16.0 | 0.00 | 0.00 | 0.00 | 29 | 1009.2 |
| 20260504205617 | 64 | 346 | 13.0 | 20.0 | 0.00 | 0.00 | 0.00 | 28 | 1009.4 |
| 20260504205611 | 64 | 338 | 9.0 | 16.0 | 0.00 | 0.00 | 0.00 | 29 | 1009.2 |
| 20260504205441 | 64 | 11 | 8.0 | 16.0 | 0.00 | 0.00 | 0.00 | 27 | 1009.4 |
| 20260504205240 | 64 | 14 | 9.0 | 15.0 | 0.00 | 0.00 | 0.00 | 29 | 1009.4 |
| 20260504205109 | 64 | 41 | 9.0 | 18.0 | 0.00 | 0.00 | 0.00 | 28 | 1009.4 |
| 20260504205041 | 64 | 37 | 9.0 | 18.0 | 0.00 | 0.00 | 0.00 | 29 | 1009.2 |
| 20260504204841 | 64 | 355 | 10.0 | 18.0 | 0.00 | 0.00 | 0.00 | 28 | 1009.2 |
| 20260504204725 | 64 | 32 | 12.0 | 19.0 | 0.00 | 0.00 | 0.00 | 28 | 1009.4 |
| 20260504204610 | 64 | 5 | 12.0 | 19.0 | 0.00 | 0.00 | 0.00 | 28 | 1009.4 |
| 20260504204438 | 64 | 0 | 12.0 | 19.0 | 0.00 | 0.00 | 0.00 | 28 | 1009.4 |
| 20260504204238 | 64 | 346 | 13.0 | 20.0 | 0.00 | 0.00 | 0.00 | 28 | 1009.4 |
| 20260504204232 | 65 | 42 | 12.0 | 20.0 | 0.00 | 0.00 | 0.00 | 28 | 1009.1 |
| 20260504204037 | 65 | 343 | 13.0 | 20.0 | 0.00 | 0.00 | 0.00 | 28 | 1009.4 |
| 20260504203837 | 65 | 15 | 12.0 | 20.0 | 0.00 | 0.00 | 0.00 | 28 | 1009.2 |
| 20260504203721 | 65 | 15 | 12.0 | 20.0 | 0.00 | 0.00 | 0.00 | 28 | 1009.1 |
| 20260504203437 | 65 | 15 | 12.0 | 20.0 | 0.00 | 0.00 | 0.00 | 27 | 1009.1 |
| 20260504203235 | 65 | 5 | 11.0 | 19.0 | 0.00 | 0.00 | 0.00 | 27 | 1009.2 |
| 20260504203115 | 66 | 0 | 12.0 | 19.0 | 0.00 | 0.00 | 0.00 | 27 | 1009.2 |
| 20260504203110 | 65 | 344 | 11.0 | 19.0 | 0.00 | 0.00 | 0.00 | 26 | 1009.2 |
| 20260504203035 | 66 | 331 | 12.0 | 19.0 | 0.00 | 0.00 | 0.00 | 26 | 1009.2 |
| 20260504202836 | 66 | 338 | 12.0 | 19.0 | 0.00 | 0.00 | 0.00 | 27 | 1009.2 |
| 20260504202719 | 66 | 24 | 12.0 | 19.0 | 0.00 | 0.00 | 0.00 | 27 | 1009.2 |
| 20260504202434 | 66 | 342 | 12.0 | 19.0 | 0.00 | 0.00 | 0.00 | 27 | 1009.2 |
| 20260504202233 | 66 | 19 | 12.0 | 19.0 | 0.00 | 0.00 | 0.00 | 27 | 1009.4 |
| 20260504202109 | 66 | 351 | 13.0 | 19.0 | 0.00 | 0.00 | 0.00 | 26 | 1009.2 |
| 20260504202031 | 66 | 346 | 12.0 | 20.0 | 0.00 | 0.00 | 0.00 | 27 | 1009.2 |
| 20260504201831 | 66 | 355 | 13.0 | 20.0 | 0.00 | 0.00 | 0.00 | 26 | 1009.2 |
| 20260504201630 | 66 | 350 | 13.0 | 20.0 | 0.00 | 0.00 | 0.00 | 28 | 1009.4 |
| 20260504201611 | 66 | 9 | 13.0 | 20.0 | 0.00 | 0.00 | 0.00 | 28 | 1009.4 |
| 20260504201431 | 65 | 32 | 13.0 | 20.0 | 0.00 | 0.00 | 0.00 | 27 | 1009.4 |
| 20260504201229 | 65 | 355 | 13.0 | 20.0 | 0.00 | 0.00 | 0.00 | 27 | 1009.4 |
| 20260504201110 | 65 | 300 | 12.0 | 20.0 | 0.00 | 0.00 | 0.00 | 29 | 1009.4 |
| 20260504201029 | 65 | 34 | 12.0 | 20.0 | 0.00 | 0.00 | 0.00 | 28 | 1009.5 |
| 20260504200828 | 65 | 343 | 12.0 | 20.0 | 0.00 | 0.00 | 0.00 | 28 | 1009.5 |
| 20260504200628 | 65 | 330 | 12.0 | 20.0 | 0.00 | 0.00 | 0.00 | 28 | 1009.5 |
| 20260504200610 | 65 | 340 | 12.0 | 20.0 | 0.00 | 0.00 | 0.00 | 28 | 1009.5 |
| 20260504200427 | 65 | 296 | 12.0 | 19.0 | 0.00 | 0.00 | 0.00 | 28 | 1009.5 |
| 20260504200226 | 65 | 333 | 12.0 | 19.0 | 0.00 | 0.00 | 0.00 | 28 | 1009.5 |
| 20260504200111 | 65 | 306 | 12.0 | 19.0 | 0.00 | 0.00 | 0.00 | 30 | 1009.5 |
| 20260504200027 | 65 | 313 | 12.0 | 19.0 | 0.00 | 0.00 | 0.00 | 30 | 1009.5 |
| 20260504195827 | 65 | 307 | 13.0 | 19.0 | 0.00 | 0.00 | 0.00 | 29 | 1009.5 |
| 20260504195628 | 64 | 342 | 12.0 | 19.0 | 0.00 | 0.00 | 0.00 | 30 | 1009.5 |
| 20260504195610 | 64 | 335 | 12.0 | 19.0 | 0.00 | 0.00 | 0.00 | 29 | 1009.5 |
| 20260504195426 | 64 | 309 | 12.0 | 21.0 | 0.00 | 0.00 | 0.00 | 29 | 1009.5 |
| 20260504195226 | 65 | 322 | 12.0 | 21.0 | 0.00 | 0.00 | 0.00 | 28 | 1009.6 |
| 20260504195116 | 66 | 327 | 12.0 | 21.0 | 0.00 | 0.00 | 0.00 | 26 | 1009.5 |
| 20260504195110 | 65 | 324 | 12.0 | 21.0 | 0.00 | 0.00 | 0.00 | 28 | 1009.6 |
| 20260504195027 | 65 | 328 | 12.0 | 21.0 | 0.00 | 0.00 | 0.00 | 28 | 1009.6 |
| 20260504194827 | 66 | 327 | 12.0 | 21.0 | 0.00 | 0.00 | 0.00 | 27 | 1009.5 |
| 20260504194736 | 65 | 355 | 11.0 | 16.0 | 0.00 | 0.00 | 0.00 | 26 | 1009.6 |
| 20260504194718 | 66 | 18 | 12.0 | 21.0 | 0.00 | 0.00 | 0.00 | 26 | 1009.5 |
| 20260504194427 | 66 | 313 | 11.0 | 17.0 | 0.00 | 0.00 | 0.00 | 27 | 1009.5 |
| 20260504194231 | 65 | 342 | 11.0 | 16.0 | 0.00 | 0.00 | 0.00 | 27 | 1009.6 |
| 20260504194026 | 65 | 340 | 10.0 | 16.0 | 0.00 | 0.00 | 0.00 | 26 | 1009.5 |
| 20260504193827 | 65 | 338 | 10.0 | 16.0 | 0.00 | 0.00 | 0.00 | 27 | 1009.5 |
| 20260504193626 | 65 | 5 | 10.0 | 18.0 | 0.00 | 0.00 | 0.00 | 28 | 1009.5 |
| 20260504193610 | 65 | 339 | 10.0 | 18.0 | 0.00 | 0.00 | 0.00 | 28 | 1009.5 |
| 20260504193427 | 65 | 0 | 11.0 | 19.0 | 0.00 | 0.00 | 0.00 | 26 | 1009.5 |
| 20260504193225 | 65 | 5 | 11.0 | 19.0 | 0.00 | 0.00 | 0.00 | 27 | 1009.5 |
| 20260504193109 | 65 | 341 | 12.0 | 20.0 | 0.00 | 0.00 | 0.00 | 28 | 1009.5 |
| 20260504193028 | 65 | 330 | 12.0 | 20.0 | 0.00 | 0.00 | 0.00 | 27 | 1009.5 |
| 20260504192826 | 65 | 330 | 12.0 | 20.0 | 0.00 | 0.00 | 0.00 | 29 | 1009.5 |
| 20260504192628 | 65 | 0 | 13.0 | 20.0 | 0.00 | 0.00 | 0.00 | 27 | 1009.6 |
| 20260504192609 | 64 | 326 | 13.0 | 20.0 | 0.00 | 0.00 | 0.00 | 28 | 1009.6 |
| 20260504192427 | 64 | 349 | 14.0 | 20.0 | 0.00 | 0.00 | 0.00 | 27 | 1009.5 |
| 20260504192225 | 64 | 339 | 14.0 | 21.0 | 0.00 | 0.00 | 0.00 | 27 | 1009.5 |
| 20260504192109 | 64 | 355 | 14.0 | 21.0 | 0.00 | 0.00 | 0.00 | 27 | 1009.5 |
| 20260504192028 | 64 | 0 | 14.0 | 21.0 | 0.00 | 0.00 | 0.00 | 27 | 1009.5 |
| 20260504191826 | 64 | 331 | 15.0 | 25.0 | 0.00 | 0.00 | 0.00 | 27 | 1009.5 |
| 20260504191628 | 65 | 319 | 14.0 | 25.0 | 0.00 | 0.00 | 0.00 | 28 | 1009.4 |
| 20260504191609 | 65 | 323 | 14.0 | 25.0 | 0.00 | 0.00 | 0.00 | 28 | 1009.4 |
| 20260504191427 | 65 | 321 | 14.0 | 25.0 | 0.00 | 0.00 | 0.00 | 27 | 1009.4 |
| 20260504191226 | 65 | 324 | 13.0 | 25.0 | 0.00 | 0.00 | 0.00 | 27 | 1009.4 |
| 20260504191110 | 65 | 299 | 12.0 | 25.0 | 0.00 | 0.00 | 0.00 | 26 | 1009.4 |
| 20260504191027 | 65 | 319 | 12.0 | 25.0 | 0.00 | 0.00 | 0.00 | 26 | 1009.4 |
| 20260504190825 | 65 | 340 | 11.0 | 20.0 | 0.00 | 0.00 | 0.00 | 26 | 1009.4 |
| 20260504190626 | 66 | 38 | 11.0 | 20.0 | 0.00 | 0.00 | 0.00 | 25 | 1009.4 |
| 20260504190609 | 66 | 17 | 11.0 | 20.0 | 0.00 | 0.00 | 0.00 | 25 | 1009.4 |
| 20260504190426 | 66 | 46 | 11.0 | 20.0 | 0.00 | 0.00 | 0.00 | 26 | 1009.4 |
| 20260504190227 | 66 | 319 | 12.0 | 21.0 | 0.00 | 0.00 | 0.00 | 25 | 1009.1 |
| 20260504190115 | 67 | 13 | 12.0 | 21.0 | 0.00 | 0.00 | 0.00 | 25 | 1009.1 |
| 20260504190110 | 66 | 336 | 12.0 | 21.0 | 0.00 | 0.00 | 0.00 | 25 | 1009.2 |
| 20260504190026 | 66 | 348 | 13.0 | 21.0 | 0.00 | 0.00 | 0.00 | 25 | 1009.2 |
| 20260504185827 | 66 | 355 | 12.0 | 21.0 | 0.00 | 0.00 | 0.00 | 25 | 1009.1 |
| 20260504185718 | 67 | 5 | 12.0 | 21.0 | 0.00 | 0.00 | 0.00 | 25 | 1009.1 |
| 20260504185427 | 67 | 348 | 11.0 | 21.0 | 0.00 | 0.00 | 0.00 | 24 | 1009.1 |
| 20260504185226 | 67 | 43 | 11.0 | 20.0 | 0.00 | 0.00 | 0.00 | 24 | 1009.1 |
| 20260504185110 | 67 | 9 | 10.0 | 20.0 | 0.00 | 0.00 | 0.00 | 24 | 1009.1 |
| 20260504185025 | 67 | 349 | 9.0 | 18.0 | 0.00 | 0.00 | 0.00 | 23 | 1009.2 |
| 20260504184825 | 68 | 34 | 8.0 | 18.0 | 0.00 | 0.00 | 0.00 | 22 | 1009.2 |
| 20260504184626 | 69 | 9 | 7.0 | 18.0 | 0.00 | 0.00 | 0.00 | 22 | 1009.2 |
| 20260504184611 | 69 | 355 | 7.0 | 18.0 | 0.00 | 0.00 | 0.00 | 22 | 1009.2 |
| 20260504184426 | 69 | 328 | 6.0 | 18.0 | 0.00 | 0.00 | 0.00 | 18 | 1009.1 |
| 20260504184226 | 69 | 327 | 5.0 | 12.0 | 0.00 | 0.00 | 0.00 | 19 | 1009.2 |
| 20260504184109 | 70 | 308 | 5.0 | 12.0 | 0.00 | 0.00 | 0.00 | 19 | 1009.2 |
| 20260504184026 | 70 | 231 | 5.0 | 13.0 | 0.00 | 0.00 | 0.00 | 18 | 1009.2 |
| 20260504183827 | 70 | 231 | 5.0 | 13.0 | 0.00 | 0.00 | 0.00 | 19 | 1009.1 |
| 20260504183626 | 70 | 309 | 5.0 | 13.0 | 0.00 | 0.00 | 0.00 | 18 | 1009.4 |
| 20260504183611 | 70 | 299 | 5.0 | 13.0 | 0.00 | 0.00 | 0.00 | 18 | 1009.4 |
| 20260504183426 | 70 | 217 | 5.0 | 13.0 | 0.00 | 0.00 | 0.00 | 20 | 1009.2 |
| 20260504183226 | 69 | 221 | 6.0 | 13.0 | 0.00 | 0.00 | 0.00 | 21 | 1009.4 |
| 20260504183109 | 69 | 229 | 6.0 | 15.0 | 0.00 | 0.00 | 0.00 | 18 | 1009.4 |
| 20260504183025 | 69 | 230 | 6.0 | 15.0 | 0.00 | 0.00 | 0.00 | 19 | 1009.2 |
| 20260504182826 | 69 | 215 | 6.0 | 17.0 | 0.00 | 0.00 | 0.00 | 21 | 1009.4 |
| 20260504182627 | 69 | 158 | 6.0 | 17.0 | 0.00 | 0.00 | 0.00 | 20 | 1009.5 |
| 20260504182611 | 69 | 157 | 6.0 | 17.0 | 0.00 | 0.00 | 0.00 | 20 | 1009.5 |
| 20260504182427 | 69 | 262 | 6.0 | 17.0 | 0.00 | 0.00 | 0.00 | 19 | 1009.5 |
| 20260504182225 | 69 | 235 | 6.0 | 17.0 | 0.00 | 0.00 | 0.00 | 21 | 1009.4 |
| 20260504182109 | 69 | 243 | 6.0 | 17.0 | 0.00 | 0.00 | 0.00 | 20 | 1009.4 |
| 20260504182026 | 69 | 213 | 6.0 | 17.0 | 0.00 | 0.00 | 0.00 | 20 | 1009.4 |
| 20260504181825 | 69 | 244 | 8.0 | 18.0 | 0.00 | 0.00 | 0.00 | 19 | 1009.5 |
| 20260504181627 | 70 | 252 | 10.0 | 18.0 | 0.00 | 0.00 | 0.00 | 19 | 1009.5 |
| 20260504181615 | 71 | 236 | 11.0 | 18.0 | 0.00 | 0.00 | 0.00 | 21 | 1009.5 |
| 20260504181611 | 70 | 232 | 10.0 | 18.0 | 0.00 | 0.00 | 0.00 | 19 | 1009.5 |
| 20260504181426 | 71 | 248 | 11.0 | 18.0 | 0.00 | 0.00 | 0.00 | 19 | 1009.5 |
| 20260504181230 | 71 | 211 | 11.0 | 18.0 | 0.00 | 0.00 | 0.00 | 20 | 1009.6 |
| 20260504181026 | 70 | 227 | 11.0 | 18.0 | 0.00 | 0.00 | 0.00 | 21 | 1009.5 |
| 20260504180826 | 70 | 209 | 10.0 | 17.0 | 0.00 | 0.00 | 0.00 | 19 | 1009.5 |
| 20260504180625 | 70 | 234 | 9.0 | 17.0 | 0.00 | 0.00 | 0.00 | 21 | 1009.6 |
| 20260504180617 | 71 | 205 | 9.0 | 17.0 | 0.00 | 0.00 | 0.00 | 20 | 1009.6 |
| 20260504180611 | 70 | 191 | 9.0 | 17.0 | 0.00 | 0.00 | 0.00 | 21 | 1009.6 |
| 20260504180426 | 70 | 196 | 10.0 | 17.0 | 0.00 | 0.00 | 0.00 | 19 | 1009.6 |
| 20260504180229 | 71 | 194 | 10.0 | 17.0 | 0.00 | 0.00 | 0.00 | 21 | 1009.6 |
| 20260504180026 | 71 | 176 | 10.0 | 21.0 | 0.00 | 0.00 | 0.00 | 21 | 1009.6 |
| 20260504175827 | 71 | 215 | 10.0 | 21.0 | 0.00 | 0.00 | 0.00 | 21 | 1009.7 |
| 20260504175627 | 70 | 199 | 11.0 | 21.0 | 0.00 | 0.00 | 0.00 | 22 | 1009.7 |
| 20260504175610 | 70 | 252 | 11.0 | 21.0 | 0.00 | 0.00 | 0.00 | 22 | 1009.7 |
| 20260504175427 | 70 | 259 | 11.0 | 21.0 | 0.00 | 0.00 | 0.00 | 21 | 1009.7 |
| 20260504175225 | 70 | 227 | 11.0 | 21.0 | 0.00 | 0.00 | 0.00 | 21 | 1009.7 |
| 20260504175107 | 69 | 211 | 11.0 | 21.0 | 0.00 | 0.00 | 0.00 | 23 | 1009.7 |
| 20260504175025 | 69 | 202 | 10.0 | 20.0 | 0.00 | 0.00 | 0.00 | 21 | 1009.7 |
| 20260504174826 | 69 | 190 | 10.0 | 17.0 | 0.00 | 0.00 | 0.00 | 23 | 1009.9 |
| 20260504174626 | 69 | 203 | 10.0 | 17.0 | 0.00 | 0.00 | 0.00 | 21 | 1009.9 |
| 20260504174606 | 69 | 205 | 10.0 | 17.0 | 0.00 | 0.00 | 0.00 | 21 | 1009.9 |
| 20260504174426 | 68 | 227 | 10.0 | 17.0 | 0.00 | 0.00 | 0.00 | 20 | 1010.1 |
| 20260504174225 | 69 | 194 | 11.0 | 17.0 | 0.00 | 0.00 | 0.00 | 20 | 1010.1 |
| 20260504174109 | 68 | 198 | 11.0 | 17.0 | 0.00 | 0.00 | 0.00 | 22 | 1010.1 |
| 20260504174026 | 68 | 192 | 11.0 | 17.0 | 0.00 | 0.00 | 0.00 | 23 | 1010.2 |
| 20260504173826 | 68 | 238 | 10.0 | 17.0 | 0.00 | 0.00 | 0.00 | 22 | 1010.1 |
| 20260504173625 | 68 | 229 | 10.0 | 17.0 | 0.00 | 0.00 | 0.00 | 23 | 1010.2 |
| 20260504173608 | 68 | 218 | 10.0 | 17.0 | 0.00 | 0.00 | 0.00 | 24 | 1010.2 |
| 20260504173424 | 67 | 197 | 10.0 | 17.0 | 0.00 | 0.00 | 0.00 | 25 | 1010.2 |
| 20260504173225 | 67 | 216 | 10.0 | 20.0 | 0.00 | 0.00 | 0.00 | 25 | 1010.2 |
| 20260504173114 | 68 | 299 | 10.0 | 19.0 | 0.00 | 0.00 | 0.00 | 24 | 1010.5 |
| 20260504173107 | 67 | 263 | 10.0 | 20.0 | 0.00 | 0.00 | 0.00 | 24 | 1010.2 |
| 20260504173023 | 67 | 259 | 10.0 | 20.0 | 0.00 | 0.00 | 0.00 | 23 | 1010.3 |
| 20260504172824 | 68 | 270 | 10.0 | 20.0 | 0.00 | 0.00 | 0.00 | 22 | 1010.5 |
| 20260504172718 | 69 | 262 | 10.0 | 20.0 | 0.00 | 0.00 | 0.00 | 22 | 1010.5 |
| 20260504172607 | 69 | 247 | 10.0 | 20.0 | 0.00 | 0.00 | 0.00 | 22 | 1010.5 |
| 20260504172423 | 69 | 237 | 10.0 | 20.0 | 0.00 | 0.00 | 0.00 | 23 | 1010.5 |
| 20260504172238 | 67 | 269 | 11.0 | 16.0 | 0.00 | 0.00 | 0.00 | 24 | 1010.6 |
| 20260504172233 | 68 | 246 | 11.0 | 19.0 | 0.00 | 0.00 | 0.00 | 23 | 1010.7 |
| 20260504172226 | 68 | 238 | 10.0 | 19.0 | 0.00 | 0.00 | 0.00 | 24 | 1010.5 |
| 20260504172022 | 68 | 240 | 11.0 | 19.0 | 0.00 | 0.00 | 0.00 | 24 | 1010.5 |
| 20260504171846 | 68 | 232 | 11.0 | 19.0 | 0.00 | 0.00 | 0.00 | 25 | 1010.5 |
| 20260504171713 | 68 | 231 | 11.0 | 19.0 | 0.00 | 0.00 | 0.00 | 23 | 1010.7 |
| 20260504171420 | 68 | 240 | 11.0 | 19.0 | 0.00 | 0.00 | 0.00 | 24 | 1010.7 |
| 20260504171226 | 67 | 255 | 11.0 | 17.0 | 0.00 | 0.00 | 0.00 | 24 | 1010.7 |
| 20260504171020 | 67 | 234 | 11.0 | 16.0 | 0.00 | 0.00 | 0.00 | 24 | 1010.6 |
| 20260504170820 | 67 | 230 | 10.0 | 16.0 | 0.00 | 0.00 | 0.00 | 23 | 1010.7 |
| 20260504170620 | 67 | 198 | 10.0 | 16.0 | 0.00 | 0.00 | 0.00 | 23 | 1010.7 |
| 20260504170606 | 67 | 240 | 10.0 | 16.0 | 0.00 | 0.00 | 0.00 | 22 | 1010.7 |
| 20260504170419 | 67 | 230 | 11.0 | 17.0 | 0.00 | 0.00 | 0.00 | 24 | 1010.7 |
| 20260504170220 | 67 | 223 | 11.0 | 19.0 | 0.00 | 0.00 | 0.00 | 25 | 1010.8 |
| 20260504170106 | 67 | 236 | 11.0 | 19.0 | 0.00 | 0.00 | 0.00 | 24 | 1010.7 |
| 20260504160414 | 65 | 255 | 15.0 | 21.0 | 0.00 | 0.00 | 0.00 | 25 | 1011.2 |
| 20260504160214 | 65 | 261 | 15.0 | 21.0 | 0.00 | 0.00 | 0.00 | 26 | 1011.3 |